Latitude: N 50° 09' 49" Longitude: W 05° 11' 53" Elevation: 168m ASL

There are 21 visitors online

Adverts

<- Previous Day | Today | Next Day ->

All Data for 10 December 2017

Time
A - D
Temp
A - D
Dew Point
A - D
Humidity
A - D
Pressure
A - D
Wind
A - D
Wind Dir Gust
A - D
Rain Rate
A - D
Rain Total
00:00 7.3 7.2 99 995.2 12.1 SE 15.2 0.0 0.0
00:02 7.3 7.2 99 995.3 12.1 SE 15.2 0.0 0.0
00:03 7.3 7.2 99 995.1 12.1 SE 15.2 0.0 0.0
00:04 7.3 7.2 99 995.1 12.1 SE 15.2 0.0 0.0
00:06 7.4 7.3 99 994.9 9.8 N 15.2 0.8 0.1
00:07 7.3 7.2 99 994.7 8.3 NE 15.2 1.5 0.1
00:09 7.4 7.3 99 994.7 6.9 E 12.1 1.5 0.1
00:11 7.4 7.3 99 994.6 12.1 S 12.1 0.8 0.1
00:13 7.4 7.3 99 994.7 9.8 N 12.1 0.0 0.1
00:15 7.4 7.3 99 994.5 14.5 SE 14.5 0.0 0.1
00:16 7.4 7.3 99 994.4 13.6 SE 14.5 0.0 0.1
00:18 7.4 7.3 99 994.5 7.6 SE 14.5 0.0 0.1
00:19 7.4 7.3 99 994.3 12.1 SE 14.5 0.0 0.1
00:20 7.4 7.3 99 994.4 10.7 E 14.5 0.0 0.1
00:21 7.4 7.3 99 994.3 14.5 SE 14.5 0.0 0.1
00:22 7.4 7.3 99 994.2 12.1 N 14.5 0.0 0.1
00:23 7.4 7.3 99 994.3 14.5 SE 14.5 0.0 0.1
00:24 7.5 7.4 99 994.0 8.3 SE 14.5 0.0 0.1
00:25 7.5 7.4 99 994.0 15.2 SE 15.2 0.0 0.1
00:26 7.5 7.4 99 994.0 11.4 SE 15.2 0.0 0.1
00:27 7.5 7.4 99 993.9 12.1 SE 15.2 0.0 0.1
00:28 7.5 7.4 99 993.8 6.9 SE 15.2 0.0 0.1
00:29 7.5 7.4 99 993.8 9.2 SE 15.2 0.0 0.1
00:30 7.5 7.4 99 993.7 7.6 NW 15.2 0.0 0.1
00:33 7.5 7.4 99 993.5 13.0 SE 15.2 0.0 0.1
00:35 7.5 7.4 99 993.3 9.8 E 13.0 0.0 0.1
00:38 7.5 7.4 99 993.1 12.1 SE 13.0 0.0 0.1
00:39 7.5 7.4 99 993.0 10.7 SE 13.0 0.0 0.1
00:40 7.5 7.4 99 993.0 11.4 SE 13.0 0.0 0.1
00:42 7.5 7.4 99 992.9 14.5 SE 14.5 0.0 0.1
00:45 7.6 7.5 99 992.8 12.1 S 14.5 0.0 0.1
00:47 7.6 7.5 99 992.7 10.7 SE 14.5 0.0 0.1
00:49 7.6 7.5 99 992.6 8.3 E 14.5 0.0 0.1
00:51 7.6 7.5 99 992.3 7.6 SE 14.5 0.0 0.1
00:53 7.6 7.5 99 992.5 10.7 SE 12.1 0.0 0.1
00:57 7.7 7.6 99 992.2 9.8 SE 13.6 0.0 0.1
00:59 7.7 7.6 99 992.2 9.8 SE 13.6 0.0 0.1
01:01 7.7 7.6 99 991.9 9.2 NE 13.6 0.0 0.1
01:03 7.7 7.6 99 991.9 9.2 NE 13.6 0.0 0.1
01:05 7.7 7.6 99 991.6 9.2 NE 13.6 0.0 0.1
01:07 7.7 7.6 99 991.5 11.4 SE 11.4 0.0 0.1
01:10 7.7 7.6 99 991.3 6.9 E 11.4 0.0 0.1
01:12 7.8 7.7 99 991.1 10.7 E 11.4 0.0 0.1
01:14 7.8 7.7 99 991.1 7.6 SE 11.4 0.0 0.1
01:15 7.8 7.7 99 990.8 6.0 SE 11.4 0.0 0.1
01:17 7.8 7.7 99 990.7 8.3 SE 13.0 0.0 0.1
01:19 7.8 7.7 99 990.4 9.2 E 13.0 0.0 0.1
01:21 7.8 7.7 99 990.0 7.6 NE 13.0 0.0 0.1
01:22 7.9 7.8 99 990.0 7.6 SE 13.0 0.0 0.1
01:23 7.8 7.7 99 989.9 4.5 SE 13.0 0.0 0.1
01:24 7.9 7.8 99 990.0 9.8 N 13.0 0.0 0.1
01:25 7.9 7.8 99 989.9 6.0 S 13.0 0.0 0.1
01:26 7.9 7.8 99 989.8 4.5 SE 13.0 0.0 0.1
01:28 7.9 7.8 99 989.9 8.3 E 9.8 0.0 0.1
01:29 7.9 7.8 99 989.8 8.3 SE 9.8 0.0 0.1
01:30 7.9 7.8 99 989.7 9.2 SE 9.8 0.8 0.2
01:31 8.0 7.9 99 989.7 9.8 E 10.7 1.5 0.3
01:32 8.0 7.9 99 989.7 10.7 SE 10.7 1.5 0.3
01:33 8.0 7.9 99 989.8 11.4 SE 11.4 2.3 0.3
01:34 8.0 7.9 99 989.8 9.8 SE 11.4 2.3 0.3
01:35 8.0 7.9 99 989.8 11.4 SE 11.4 2.3 0.4
01:36 8.1 8.0 99 989.7 8.3 SE 11.4 2.3 0.4
01:37 8.1 8.0 99 989.9 8.3 SE 11.4 3.0 0.5
01:38 8.1 8.0 99 989.7 6.9 SE 11.4 3.0 0.6
01:39 8.1 8.0 99 989.8 10.7 SE 11.4 3.0 0.6
01:40 8.1 8.0 99 989.6 12.1 SE 12.1 3.0 0.6
01:41 8.1 8.0 99 989.5 12.1 SE 12.1 3.0 0.7
01:42 8.2 8.1 99 989.4 10.7 E 12.1 3.0 0.8
01:43 8.2 8.1 99 989.5 7.6 SE 12.1 3.0 0.8
01:44 8.2 8.1 99 989.5 7.6 SE 12.1 3.0 0.8
01:45 8.2 8.1 99 989.2 4.5 N 12.1 3.0 0.9
01:46 8.2 8.1 99 989.3 4.5 SE 12.1 2.3 0.9
01:47 8.2 8.1 99 989.1 3.8 SE 12.1 1.5 0.9
01:48 8.3 8.2 99 989.2 2.2 E 12.1 1.5 0.9
01:49 8.3 8.2 99 989.1 2.2 E 12.1 1.5 0.9
01:50 8.3 8.2 99 989.0 2.2 E 12.1 0.8 1.0
01:51 8.3 8.2 99 989.2 1.6 E 10.7 1.5 1.0
01:52 8.3 8.2 99 988.9 0.7 E 7.6 2.3 1.1
01:53 8.3 8.2 99 988.8 1.6 E 7.6 1.5 1.1
01:54 8.3 8.2 99 988.7 0.7 E 6.9 1.5 1.1
01:55 8.3 8.2 99 988.7 0.7 E 6.9 2.3 1.1
01:56 8.3 8.2 99 988.8 0.7 E 6.9 2.3 1.3
01:57 8.3 8.2 99 988.6 1.6 E 3.8 2.3 1.3
01:58 8.3 8.2 99 988.5 1.6 E 2.2 2.3 1.3
01:59 8.3 8.2 99 988.6 1.6 E 2.2 3.0 1.3
02:00 8.3 8.2 99 988.5 2.2 E 2.2 3.0 1.4
02:01 8.3 8.2 99 988.4 2.2 E 2.2 2.3 1.4
02:02 8.3 8.2 99 988.4 2.2 E 2.2 1.5 1.4
02:04 8.3 8.2 99 988.1 2.2 E 2.2 0.8 1.4
02:05 8.3 8.2 99 988.0 2.2 E 2.2 0.0 1.4
02:06 8.4 8.3 99 987.8 3.1 NE 3.1 2.3 1.6
02:07 8.4 8.3 99 987.9 2.2 NE 3.1 2.3 1.6
02:08 8.4 8.3 99 987.8 1.6 NE 3.1 2.3 1.6
02:09 8.4 8.3 99 987.9 0.7 NE 3.1 2.3 1.6
02:10 8.4 8.3 99 987.7 3.1 NE 3.1 2.3 1.6
02:11 8.4 8.3 99 987.8 3.8 NE 3.8 0.0 1.6
02:12 8.5 8.4 99 987.7 0.7 NE 3.8 0.8 1.6
02:13 8.5 8.4 99 987.7 1.6 NE 3.8 0.8 1.6
02:14 8.5 8.4 99 987.6 1.6 NE 3.8 0.8 1.6
02:16 8.5 8.4 99 987.5 3.1 NE 3.8 0.8 1.6
02:17 8.6 8.5 99 987.4 3.1 NE 3.8 1.5 1.8
02:18 8.6 8.5 99 987.3 2.2 NE 3.8 1.5 1.8
02:19 8.6 8.5 99 987.4 1.6 NE 3.8 3.0 1.9
02:20 8.6 8.5 99 987.4 2.2 NE 3.8 3.0 1.9
02:21 8.7 8.6 99 987.3 3.8 NE 3.8 3.0 1.9
02:22 8.7 8.6 99 987.3 2.2 NE 3.8 2.3 2.0
02:23 8.7 8.6 99 987.3 2.2 NE 3.8 3.0 2.0
02:24 8.7 8.6 99 987.5 3.8 NE 3.8 2.3 2.1
02:25 8.7 8.6 99 987.7 4.5 WSW 4.5 3.0 2.1
02:26 8.7 8.6 99 987.7 4.5 WSW 4.5 4.5 2.3
02:27 8.8 8.7 99 988.0 6.9 WSW 6.9 7.5 2.6
02:28 8.8 8.7 99 988.0 6.0 WSW 6.9 7.6 2.6
02:29 8.8 8.7 99 988.2 12.1 S 12.1 8.3 2.8
02:30 8.9 8.8 99 988.3 19.7 WSW 22.8 9.1 3.0
02:31 9.1 9.0 99 988.1 19.0 WSW 22.8 9.1 3.0
02:32 9.3 9.2 99 988.3 28.2 WSW 28.2 5.3 3.1
02:33 9.4 9.3 99 988.3 34.2 WSW 34.2 5.3 3.1
02:34 9.5 9.4 99 988.3 26.6 WSW 34.2 3.8 3.1
02:35 9.6 9.5 99 988.0 26.6 WSW 34.2 3.0 3.1
02:36 9.7 9.6 99 987.9 21.3 WSW 34.2 1.5 3.1
02:37 9.8 9.7 99 987.6 25.9 WSW 34.2 1.5 3.2
02:38 9.8 9.7 99 987.6 29.8 WSW 34.2 1.5 3.2
02:39 9.9 9.8 99 987.6 26.6 W 34.2 1.5 3.2
02:40 9.9 9.8 99 987.7 15.2 WSW 34.2 1.5 3.3
02:41 9.9 9.8 99 987.7 15.2 WSW 34.2 1.5 3.3
02:43 10.0 9.9 99 987.4 31.1 WSW 34.2 0.8 3.3
02:44 10.0 9.9 99 987.5 22.8 WSW 34.2 0.8 3.3
02:45 10.0 9.9 99 987.7 19.0 WSW 31.1 0.0 3.3
02:46 10.0 9.9 99 987.4 13.6 WNW 31.1 0.0 3.3
02:47 10.0 9.9 99 987.6 19.0 WSW 31.1 0.8 3.3
02:48 10.0 9.9 99 987.4 28.9 NW 31.1 0.8 3.3
02:49 10.0 9.9 99 987.3 19.7 NW 31.1 0.8 3.3
02:50 10.0 9.9 99 987.2 22.1 WSW 31.1 1.5 3.4
02:51 10.0 9.9 99 987.2 22.8 NW 31.1 1.5 3.4
02:52 10.0 9.9 99 987.4 24.4 WSW 31.1 0.8 3.4
02:53 10.1 10.0 99 987.4 25.1 WNW 31.1 0.8 3.4
02:54 10.1 10.0 99 987.4 19.0 WSW 28.9 0.8 3.4
02:55 10.1 10.0 99 987.2 26.6 WSW 28.9 0.0 3.4
02:56 10.1 10.0 99 987.2 21.3 NW 28.9 0.0 3.5
02:57 10.1 10.0 99 987.2 19.0 WSW 28.9 0.8 3.5
02:58 10.1 10.0 99 987.2 18.3 NNW 26.6 0.8 3.5
02:59 10.2 10.1 99 987.1 20.6 WSW 26.6 0.8 3.5
03:00 10.1 10.0 99 987.1 24.4 W 26.6 1.5 3.5
03:01 10.1 10.0 99 987.1 24.4 W 26.6 1.5 3.5
03:02 10.1 10.0 99 987.1 24.4 W 26.6 0.8 3.5
03:03 10.1 10.0 99 987.1 24.4 W 26.6 0.8 3.5
03:05 10.1 10.0 99 987.2 24.4 W 26.6 0.0 3.5
03:06 10.2 10.1 99 987.2 20.6 WNW 24.4 1.5 3.7
03:07 10.2 10.1 99 986.9 17.4 WSW 24.4 1.5 3.7
03:08 10.2 10.1 99 986.9 15.2 WSW 24.4 2.3 3.8
03:09 10.3 10.2 99 986.9 15.9 W 24.4 3.0 3.8
03:10 10.3 10.2 99 986.9 16.8 WSW 24.4 3.0 3.8
03:11 10.2 10.1 99 986.7 15.2 W 24.4 1.5 3.8
03:13 10.3 10.2 99 986.8 20.6 WSW 24.4 0.8 3.8
03:14 10.3 10.2 99 986.7 19.0 WSW 24.4 0.0 3.8
03:15 10.3 10.2 99 986.6 18.3 WSW 20.6 0.8 3.8
03:16 10.3 10.2 99 986.7 20.6 WSW 20.6 0.8 3.8
03:17 10.3 10.2 99 986.7 19.0 W 20.6 0.8 3.8
03:18 10.3 10.2 99 986.3 19.0 W 20.6 0.8 3.8
03:19 10.3 10.2 99 986.3 19.0 W 20.6 0.8 3.8
03:20 10.3 10.2 99 986.6 21.3 W 22.1 0.0 3.8
03:21 10.3 10.2 99 986.5 15.2 WNW 22.1 0.0 3.8
03:22 10.3 10.2 99 986.4 12.1 WSW 22.1 0.0 3.8
03:23 10.3 10.2 99 986.4 16.8 WSW 22.1 0.0 3.8
03:24 10.3 10.2 99 986.2 15.2 WSW 22.1 0.0 3.8
03:25 10.3 10.2 99 986.1 14.5 W 22.1 0.0 3.8
03:26 10.3 10.2 99 986.1 17.4 NW 22.1 0.0 3.8
03:27 10.3 10.2 99 986.0 17.4 WNW 22.1 0.0 3.8
03:28 10.3 10.2 99 985.9 20.6 WSW 22.1 0.0 3.9
03:29 10.3 10.2 99 985.9 15.9 WSW 21.3 0.8 3.9
03:30 10.3 10.2 99 985.8 20.6 WSW 20.6 0.8 3.9
03:31 10.3 10.2 99 985.6 21.3 WSW 21.3 0.8 3.9
03:33 10.3 10.2 99 985.7 25.1 NW 25.1 0.8 3.9
03:34 10.3 10.2 99 985.5 20.6 W 25.1 0.0 3.9
03:35 10.3 10.2 99 985.6 21.3 WSW 25.1 0.0 3.9
03:36 10.3 10.2 99 985.4 15.2 WSW 25.1 0.0 3.9
03:37 10.3 10.2 99 985.4 22.8 WSW 25.1 0.0 3.9
03:38 10.3 10.2 99 985.1 22.1 S 25.1 0.0 3.9
03:40 10.3 10.2 99 984.8 18.3 NW 25.1 0.0 3.9
03:41 10.2 10.1 99 984.9 15.2 WSW 25.1 0.0 3.9
03:42 10.2 10.1 99 984.7 11.4 WSW 25.1 0.0 3.9
03:43 10.2 10.1 99 984.5 17.4 WSW 25.1 0.0 3.9
03:44 10.2 10.1 99 984.7 15.9 WSW 22.8 0.0 3.9
03:45 10.2 10.1 99 984.7 15.2 WSW 22.8 0.0 3.9
03:46 10.2 10.1 99 984.5 19.7 WSW 22.8 0.0 3.9
03:47 10.1 10.0 99 984.5 20.6 WSW 22.8 0.0 3.9
03:48 10.1 10.0 99 984.4 18.3 WSW 22.1 0.0 3.9
03:49 10.1 10.0 99 984.3 15.9 WSW 20.6 0.0 3.9
03:50 10.1 10.0 99 984.5 16.8 S 20.6 0.0 3.9
03:51 10.1 10.0 99 984.4 18.3 WSW 20.6 0.0 3.9
03:52 10.1 10.0 99 984.5 15.9 WSW 20.6 0.0 3.9
03:53 10.1 10.0 99 984.2 19.0 WSW 20.6 0.0 3.9
03:54 10.1 10.0 99 984.4 22.1 WSW 22.1 0.0 3.9
03:55 10.1 10.0 99 984.3 20.6 WSW 22.1 0.0 3.9
03:56 10.1 10.0 99 984.2 15.2 WSW 22.8 0.0 3.9
03:57 10.1 10.0 99 984.3 22.1 WSW 22.8 0.0 3.9
03:58 10.1 10.0 99 984.4 21.3 WSW 22.8 0.0 3.9
04:00 10.1 10.0 99 984.5 19.7 WSW 24.4 0.0 3.9
04:01 10.1 10.0 99 984.4 19.7 WSW 24.4 0.0 3.9
04:02 10.1 10.0 99 984.3 15.9 W 24.4 0.0 3.9
04:03 10.1 10.0 99 984.3 22.1 W 24.4 0.0 3.9
04:04 10.1 10.0 99 984.5 25.9 WSW 25.9 0.0 3.9
04:05 10.0 9.9 99 984.2 24.4 W 25.9 0.0 3.9
04:06 10.1 10.0 99 984.3 24.4 N 25.9 0.0 3.9
04:08 10.1 10.0 99 984.2 28.2 WSW 28.2 0.0 3.9
04:09 10.0 9.9 99 984.3 22.1 WSW 28.2 0.0 3.9
04:10 10.0 9.9 99 984.0 33.6 WSW 33.6 0.0 3.9
04:11 10.0 9.9 99 984.2 25.9 WSW 33.6 0.0 3.9
04:13 10.0 9.9 99 984.2 22.1 WSW 33.6 0.0 3.9
04:14 10.0 9.9 99 984.2 21.3 WSW 33.6 0.0 3.9
04:15 10.0 9.9 99 984.2 20.6 WSW 33.6 0.0 3.9
04:16 10.0 9.9 99 984.1 25.9 WSW 33.6 0.0 3.9
04:17 10.0 9.9 99 984.0 28.2 WSW 33.6 0.0 3.9
04:18 10.0 9.9 99 984.1 31.1 WSW 33.6 0.0 3.9
04:19 10.0 9.9 99 984.1 19.7 W 33.6 0.0 3.9
04:20 10.0 9.9 99 984.2 42.5 WSW 42.5 0.0 4.0
04:21 10.1 10.0 99 984.1 34.2 WSW 42.5 0.8 4.0
04:22 10.0 9.9 99 984.2 28.9 W 42.5 0.8 4.0
04:23 10.0 9.9 99 984.3 38.7 WSW 42.5 0.8 4.0
04:24 10.0 9.9 99 984.3 32.0 W 42.5 0.8 4.0
04:25 10.0 9.9 99 984.0 37.4 W 42.5 0.8 4.0
04:27 9.9 9.8 99 984.2 26.6 WSW 42.5 0.8 4.0
04:28 9.9 9.8 99 984.0 27.3 WNW 42.5 0.8 4.0
04:29 9.8 9.7 99 984.3 32.0 W 42.5 0.8 4.0
04:30 9.8 9.7 99 984.2 25.9 W 42.5 0.8 4.0
04:31 9.7 9.6 99 984.1 21.3 WSW 38.7 0.0 4.0
04:32 9.7 9.6 99 984.3 16.8 WSW 38.7 0.0 4.0
04:33 9.7 9.6 99 984.3 22.8 WSW 38.7 0.0 4.0
04:34 9.6 9.5 99 984.1 28.2 WSW 37.4 0.0 4.0
04:35 9.5 9.4 99 984.2 25.1 NW 37.4 0.0 4.0
04:36 9.5 9.4 99 984.1 22.8 WSW 32.0 0.0 4.0
04:37 9.5 9.4 99 984.1 21.3 WSW 32.0 0.0 4.0
04:38 9.4 9.3 99 984.1 25.9 NW 32.0 0.0 4.0
04:39 9.4 9.3 99 984.1 26.6 WSW 28.2 0.0 4.0
04:40 9.4 9.3 99 983.9 28.2 WNW 28.2 0.0 4.0
04:41 9.4 9.3 99 984.1 19.0 WSW 28.2 0.0 4.0
04:42 9.4 9.3 99 984.1 22.8 WSW 28.2 0.0 4.0
04:43 9.4 9.3 99 983.9 19.0 WNW 28.2 0.0 4.0
04:44 9.4 9.3 99 983.8 24.4 NNW 28.2 0.0 4.1
04:45 9.4 9.3 99 983.9 22.8 W 28.2 0.8 4.1
04:47 9.3 9.2 99 984.1 18.3 WSW 28.2 1.5 4.2
04:48 9.3 9.2 99 984.2 17.4 WSW 28.2 1.5 4.2
04:49 9.3 9.2 99 983.9 17.4 WSW 28.2 2.3 4.2
04:50 9.3 9.2 99 984.0 14.5 W 28.2 2.3 4.3
04:51 9.2 9.1 99 984.1 14.5 NW 24.4 3.0 4.3
04:52 9.2 9.1 99 984.1 22.1 WSW 24.4 3.0 4.4
04:53 9.2 9.1 99 984.0 27.3 WSW 27.3 3.8 4.5
04:54 9.2 9.1 99 984.3 31.1 WSW 31.1 3.0 4.5
04:55 9.1 9.0 99 984.0 24.4 WSW 31.1 3.0 4.5
04:56 9.1 9.0 99 984.2 17.4 WSW 31.1 2.3 4.5
04:57 9.1 9.0 99 984.2 22.1 NW 31.1 1.5 4.5
04:58 9.0 8.9 99 983.8 25.1 W 31.1 0.8 4.5
04:59 9.0 8.9 99 983.6 32.7 NW 32.7 0.8 4.5
05:00 9.0 8.9 99 983.9 28.9 WSW 32.7 0.0 4.5
05:01 8.9 8.8 99 984.0 23.5 WSW 32.7 0.0 4.5
05:02 8.9 8.8 99 984.0 22.8 WSW 32.7 0.0 4.5
05:03 8.8 8.7 99 983.9 22.8 WSW 32.7 0.0 4.5
05:04 8.8 8.7 99 984.0 20.6 W 32.7 0.0 4.5
05:05 8.7 8.6 99 983.9 18.3 NW 32.7 0.0 4.5
05:07 8.7 8.6 99 984.1 22.1 WSW 32.7 0.8 4.6
05:08 8.7 8.6 99 983.8 29.8 SW 32.7 1.5 4.7
05:10 8.6 8.5 99 983.9 29.8 WSW 29.8 1.5 4.7
05:11 8.6 8.5 99 984.2 22.1 WSW 29.8 1.5 4.7
05:12 8.6 8.5 99 983.8 21.3 W 29.8 0.8 4.7
05:13 8.6 8.5 99 983.9 24.4 N 29.8 0.0 4.7
05:14 8.5 8.4 99 984.0 17.4 WSW 32.0 0.0 4.7
05:15 8.5 8.4 99 984.1 19.0 WSW 32.0 0.0 4.7
05:16 8.5 8.4 99 984.0 28.2 WSW 32.0 0.0 4.7
05:17 8.5 8.4 99 984.0 28.2 WSW 32.0 0.0 4.7
05:18 8.5 8.4 99 984.2 24.4 WSW 32.0 0.0 4.7
05:19 8.5 8.4 99 983.7 28.9 W 32.7 0.0 4.7
05:20 8.4 8.3 99 983.6 29.8 W 32.7 0.0 4.7
05:22 8.4 8.3 99 983.7 22.1 WSW 32.7 0.0 4.7
05:23 8.4 8.3 99 984.1 26.6 WSW 32.7 0.0 4.7
05:24 8.4 8.3 99 983.8 23.5 WSW 32.7 0.0 4.7
05:25 8.4 8.3 99 983.7 22.8 WSW 32.7 0.0 4.7
05:26 8.3 8.2 99 983.9 23.5 WSW 32.7 0.0 4.7
05:27 8.4 8.3 99 983.7 26.6 W 32.7 0.0 4.7
05:28 8.3 8.2 99 983.7 29.8 W 32.7 0.0 4.7
05:29 8.3 8.2 99 983.6 34.9 W 34.9 0.0 4.7
05:30 8.3 8.2 99 983.7 29.8 W 34.9 0.0 4.7
05:31 8.3 8.2 99 984.0 24.4 SW 35.8 0.0 4.7
05:32 8.3 8.2 99 983.8 32.7 W 35.8 0.0 4.7
05:33 8.3 8.2 99 983.8 32.7 W 35.8 0.0 4.7
05:34 8.3 8.2 99 983.8 30.4 W 35.8 0.0 4.7
05:35 8.3 8.2 99 983.8 29.8 SW 35.8 0.0 4.7
05:36 8.4 8.3 99 983.9 20.6 SW 35.8 0.0 4.7
05:38 8.3 8.2 99 983.8 25.1 NW 35.8 0.0 4.7
05:39 8.3 8.2 99 983.9 22.8 NW 35.8 0.0 4.7
05:40 8.3 8.2 99 983.8 21.3 SW 35.8 0.0 4.7
05:41 8.3 8.2 99 983.8 22.8 SW 35.8 0.0 4.7
05:42 8.3 8.2 99 983.7 24.4 SW 32.7 0.0 4.7
05:43 8.3 8.2 99 983.8 28.2 SW 32.7 0.0 4.7
05:44 8.3 8.2 99 983.7 25.1 SW 30.4 0.0 4.7
05:45 8.3 8.2 99 983.8 29.8 WNW 29.8 0.0 4.7
05:46 8.3 8.2 99 983.7 28.9 W 29.8 0.0 4.7
05:47 8.3 8.2 99 983.8 22.1 SW 29.8 0.0 4.7
05:48 8.3 8.2 99 983.8 22.8 SW 29.8 0.0 4.7
05:49 8.3 8.2 99 983.9 25.9 SW 29.8 0.0 4.7
05:50 8.3 8.2 99 983.9 25.9 SW 29.8 0.0 4.7
05:51 8.3 8.2 99 983.7 32.0 W 32.0 0.0 4.7
05:52 8.3 8.2 99 983.7 24.4 W 32.0 0.0 4.7
05:53 8.3 8.2 99 983.7 26.6 W 32.0 0.0 4.7
05:54 8.3 8.2 99 983.7 28.2 SW 32.0 0.0 4.7
05:55 8.2 8.1 99 984.0 31.1 SW 32.0 0.0 4.7
05:56 8.2 8.1 99 983.8 22.8 SW 32.0 0.0 4.7
05:57 8.2 8.1 99 983.7 32.0 NW 32.0 0.0 4.7
05:59 8.2 8.1 99 983.7 25.1 W 32.0 0.0 4.7
06:00 8.2 8.1 99 984.0 23.5 W 32.0 0.0 4.7
06:01 8.2 8.1 99 983.6 23.5 W 32.0 0.0 4.7
06:02 8.1 8.0 99 983.7 25.1 SW 32.0 0.0 4.7
06:03 8.1 8.0 99 983.7 23.5 W 32.0 0.0 4.7
06:04 8.1 8.0 99 983.7 16.8 W 32.0 0.0 4.7
06:05 8.1 8.0 99 983.7 17.4 SW 32.0 0.0 4.7
06:06 8.0 7.9 99 983.7 28.2 SW 32.0 0.0 4.7
06:08 8.0 7.9 99 983.5 21.3 W 28.2 0.0 4.7
06:10 8.0 7.9 99 983.4 36.5 SW 36.5 0.0 4.7
06:11 8.0 7.9 99 983.7 25.1 W 36.5 0.0 4.7
06:12 8.0 7.9 99 983.6 19.7 NW 36.5 0.0 4.7
06:13 8.0 7.9 99 983.6 34.2 SW 36.5 0.0 4.7
06:14 8.0 7.9 99 983.7 29.8 NW 36.5 0.0 4.7
06:15 8.0 7.9 99 983.7 25.9 WNW 36.5 0.0 4.7
06:16 8.0 7.9 99 983.5 26.6 NNW 36.5 0.0 4.7
06:17 8.0 7.9 99 983.6 27.3 N 36.5 0.0 4.7
06:18 8.0 7.9 99 983.7 26.6 NW 36.5 0.0 4.7
06:19 8.0 7.9 99 983.4 25.9 SW 36.5 0.0 4.7
06:20 8.0 7.9 99 983.8 31.1 W 36.5 0.0 4.7
06:21 8.0 7.9 99 983.6 35.8 SW 35.8 0.0 4.7
06:22 8.0 7.9 99 983.5 35.8 SW 35.8 0.0 4.7
06:23 8.0 7.9 99 983.6 27.3 N 35.8 0.0 4.7
06:24 8.0 7.9 99 983.6 26.6 W 35.8 0.0 4.7
06:25 8.0 7.9 99 983.7 23.5 SW 35.8 0.0 4.7
06:26 8.0 7.9 99 983.5 22.1 SW 35.8 0.0 4.7
06:27 8.0 7.9 99 983.7 30.4 SW 35.8 0.0 4.7
06:29 7.9 7.8 99 983.6 22.8 SW 35.8 0.0 4.7
06:30 8.0 7.9 99 983.7 23.5 SW 35.8 0.0 4.7
06:31 7.9 7.8 99 983.5 30.4 W 35.8 0.0 4.7
06:32 7.9 7.8 99 983.4 29.8 SW 35.8 0.0 4.7
06:33 7.9 7.8 99 983.5 28.9 SW 30.4 0.0 4.7
06:34 7.9 7.8 99 983.5 28.2 W 30.4 0.0 4.7
06:35 7.9 7.8 99 983.6 25.9 SW 34.2 0.0 4.7
06:36 7.9 7.8 99 983.4 32.0 SW 34.2 0.0 4.7
06:37 7.9 7.8 99 983.5 25.1 SW 34.2 0.0 4.7
06:38 7.9 7.8 99 983.7 23.5 NW 34.2 0.0 4.7
06:39 7.9 7.8 99 983.6 29.8 W 34.2 0.0 4.7
06:40 7.8 7.7 99 983.3 35.8 SW 38.0 0.0 4.7
06:41 7.9 7.8 99 983.5 25.1 SW 38.0 0.0 4.7
06:42 7.8 7.7 99 983.4 29.8 W 38.0 0.0 4.7
06:43 7.8 7.7 99 983.6 24.4 W 38.0 0.0 4.7
06:45 7.8 7.7 99 983.5 27.3 SW 38.0 0.0 4.7
06:46 7.8 7.7 99 983.4 27.3 SW 38.0 0.0 4.7
06:47 7.8 7.7 99 983.1 27.3 SW 38.0 0.0 4.7
06:48 7.8 7.7 99 983.4 34.9 SW 38.0 0.0 4.7
06:49 7.8 7.5 98 983.3 27.3 SW 38.0 0.0 4.7
06:50 7.8 7.5 98 983.2 32.7 WNW 38.0 0.0 4.7
06:51 7.9 7.6 98 983.1 27.3 N 34.9 0.8 4.7
06:52 7.9 7.6 98 983.4 32.7 SW 34.9 0.8 4.7
06:53 7.9 7.6 98 983.3 23.5 SW 34.9 0.8 4.7
06:54 7.9 7.6 98 983.3 37.4 WNW 37.4 0.8 4.7
06:55 7.9 7.6 98 983.4 33.6 SW 37.4 0.8 4.7
06:56 7.9 7.5 97 983.3 26.6 S 37.4 0.0 4.7
06:57 7.9 7.5 97 983.2 28.2 NW 37.4 0.0 4.7
06:58 7.9 7.5 97 983.5 29.8 SW 37.4 0.0 4.7
06:59 7.9 7.5 97 983.3 29.8 W 37.4 0.0 4.7
07:01 7.9 7.5 97 983.0 28.9 SW 37.4 0.0 4.7
07:02 8.0 7.6 97 983.4 27.3 W 37.4 0.0 4.7
07:03 7.9 7.5 97 983.5 19.0 SW 37.4 0.0 4.8
07:04 7.8 7.4 97 983.5 38.0 W 38.0 0.8 4.8
07:05 7.7 7.3 97 983.4 27.3 SW 38.0 1.5 4.9
07:07 7.7 7.4 98 983.4 25.9 W 38.0 1.5 4.9
07:08 7.6 7.3 98 983.3 27.3 NW 38.0 1.5 4.9
07:10 7.6 7.3 98 983.4 26.6 SW 38.0 0.0 4.9
07:11 7.6 7.3 98 983.4 34.2 SW 38.0 0.0 4.9
07:12 7.6 7.3 98 983.2 28.9 WNW 38.0 0.0 4.9
07:13 7.6 7.3 98 983.3 30.4 SW 38.0 0.0 4.9
07:15 7.6 7.3 98 983.0 29.8 SW 34.2 0.0 4.9
07:16 7.5 7.2 98 983.4 30.4 SW 34.2 0.0 4.9
07:17 7.5 7.2 98 983.6 28.2 SW 34.2 0.0 4.9
07:18 7.5 7.2 98 983.3 31.1 SW 34.2 0.0 4.9
07:19 7.5 7.2 98 983.3 31.1 SW 34.2 0.0 4.9
07:20 7.6 7.3 98 983.3 24.4 SW 34.2 0.0 4.9
07:21 7.6 7.3 98 983.2 20.6 W 31.1 0.0 4.9
07:22 7.6 7.3 98 983.4 24.4 SW 31.1 0.0 4.9
07:23 7.6 7.3 98 983.1 27.3 SW 31.1 0.0 4.9
07:24 7.6 7.3 98 983.0 20.6 W 31.1 0.0 4.9
07:25 7.6 7.3 98 983.1 31.1 SW 31.1 0.0 4.9
07:26 7.6 7.3 98 983.3 27.3 S 31.1 0.8 4.9
07:27 7.6 7.2 97 983.0 25.1 SW 31.1 0.8 4.9
07:28 7.6 7.2 97 983.3 17.4 NW 31.1 0.8 4.9
07:29 7.6 7.2 97 983.2 22.1 SW 31.1 0.8 4.9
07:31 7.6 7.2 97 983.3 32.7 NW 32.7 0.0 4.9
07:32 7.6 7.2 97 983.1 28.2 NW 32.7 0.0 4.9
07:33 7.6 7.2 97 983.2 24.4 WNW 32.7 0.0 4.9
07:34 7.6 7.2 97 983.4 28.2 SW 32.7 0.0 4.9
07:35 7.6 7.2 97 983.2 28.2 SW 32.7 0.0 4.9
07:36 7.6 7.2 97 983.2 32.7 SW 32.7 0.0 4.9
07:37 7.7 7.3 97 983.0 29.8 N 32.7 0.0 4.9
07:38 7.7 7.3 97 983.3 26.6 NW 32.7 0.0 4.9
07:39 7.7 7.3 97 983.3 26.6 NW 32.7 0.0 4.9
07:40 7.7 7.3 97 983.4 30.4 WNW 32.7 0.0 4.9
07:41 7.8 7.4 97 983.6 34.9 N 34.9 0.0 4.9
07:42 7.7 7.3 97 983.6 34.2 NW 34.9 0.0 4.9
07:45 7.7 7.3 97 983.1 25.9 W 34.9 0.0 4.9
07:46 7.7 7.3 97 983.3 31.1 SW 34.9 0.0 4.9
07:47 7.6 7.2 97 983.4 33.6 S 34.9 0.0 4.9
07:48 7.6 7.2 97 983.4 33.6 SW 34.9 0.0 4.9
07:49 7.6 7.2 97 983.4 27.3 WNW 34.9 0.0 4.9
07:50 7.6 7.2 97 983.6 28.9 W 34.9 0.0 4.9
07:51 7.6 7.2 97 983.3 26.6 NW 34.2 0.0 4.9
07:52 7.6 7.2 97 983.3 32.7 S 34.2 0.0 4.9
07:53 7.6 7.2 97 983.4 19.0 W 33.6 0.0 4.9
07:54 7.6 7.2 97 983.6 26.6 WNW 33.6 0.0 4.9
07:55 7.6 7.2 97 983.3 30.4 W 33.6 0.0 4.9
07:56 7.6 7.0 96 983.5 28.9 SW 33.6 0.0 4.9
07:57 7.6 7.0 96 983.5 24.4 SW 33.6 0.0 4.9
07:58 7.6 7.0 96 983.3 21.3 S 33.6 0.0 4.9
07:59 7.6 7.0 96 983.4 32.7 SW 33.6 0.0 4.9
08:00 7.6 7.0 96 983.4 32.7 SW 33.6 0.0 4.9
08:01 7.6 7.0 96 983.4 27.3 W 33.6 0.0 4.9
08:02 7.6 7.0 96 983.3 28.9 SW 33.6 0.0 4.9
08:03 7.6 7.0 96 983.4 24.4 SW 32.7 0.0 4.9
08:04 7.6 6.9 95 983.6 38.0 NW 38.0 0.0 4.9
08:06 7.7 7.0 95 983.2 26.6 SW 38.0 0.0 4.9
08:07 7.7 7.0 95 983.6 28.2 N 38.0 0.0 4.9
08:08 7.7 6.8 94 983.5 25.9 SW 38.0 0.0 4.9
08:10 7.7 6.8 94 983.4 26.6 SW 38.0 0.0 4.9
08:11 7.7 6.8 94 983.4 27.3 W 38.0 0.0 4.9
08:12 7.7 6.8 94 983.6 27.3 SW 38.0 0.0 4.9
08:13 7.7 6.8 94 983.7 20.6 W 38.0 0.0 4.9
08:14 7.7 6.8 94 983.5 21.3 SW 38.0 0.0 4.9
08:15 7.7 6.8 94 983.7 19.0 SW 32.7 0.0 4.9
08:16 7.8 6.9 94 983.7 27.3 SW 32.7 0.0 4.9
08:17 7.7 6.8 94 983.7 23.5 SW 32.7 0.0 4.9
08:18 7.7 6.6 93 983.2 25.1 NW 28.2 0.0 4.9
08:20 7.8 6.7 93 983.7 25.9 SW 32.7 0.0 4.9
08:21 7.8 6.7 93 983.4 26.6 SW 32.7 0.0 4.9
08:22 7.8 6.7 93 983.3 34.2 W 34.2 0.0 4.9
08:23 7.8 6.7 93 983.4 30.4 W 34.2 0.0 4.9
08:24 7.9 6.8 93 983.7 25.9 S 34.2 0.0 4.9
08:25 7.9 6.8 93 983.7 21.3 SW 34.2 0.0 4.9
08:26 7.9 6.8 93 983.8 32.0 SW 34.2 0.0 4.9
08:27 7.9 6.8 93 983.5 31.1 SW 34.2 0.0 4.9
08:28 7.9 6.8 93 983.7 31.1 W 34.2 0.0 4.9
08:29 8.0 6.8 92 983.8 28.2 W 34.2 0.0 4.9
08:30 8.0 6.8 92 983.4 35.8 SW 35.8 0.0 4.9
08:31 8.0 6.8 92 983.7 33.6 SW 35.8 0.0 4.9
08:32 8.0 6.8 92 983.6 30.4 WNW 35.8 0.0 4.9
08:33 8.1 6.9 92 983.7 25.9 W 35.8 0.0 4.9
08:34 8.1 6.9 92 983.6 26.6 NNW 35.8 0.0 4.9
08:35 8.1 6.9 92 983.8 18.3 W 35.8 0.0 4.9
08:36 8.1 6.9 92 983.6 26.6 SW 35.8 0.0 4.9
08:37 8.1 6.7 91 983.6 22.8 SW 35.8 0.0 4.9
08:38 8.1 6.7 91 983.4 29.8 W 35.8 0.0 4.9
08:39 8.1 6.7 91 983.7 29.8 W 35.8 0.0 4.9
08:40 8.1 6.9 92 983.6 25.1 SW 35.8 0.0 4.9
08:41 8.1 6.9 92 983.5 24.4 SW 33.6 0.0 4.9
08:42 8.0 6.8 92 983.6 20.6 NW 30.4 0.0 4.9
08:43 8.0 6.8 92 983.4 28.2 SW 29.8 0.0 4.9
08:44 8.0 6.8 92 983.5 23.5 SW 29.8 0.0 4.9
08:45 8.0 6.8 92 983.5 20.6 SW 29.8 0.0 4.9
08:46 8.0 6.8 92 983.7 24.4 SW 29.8 0.0 4.9
08:47 8.0 6.8 92 983.8 19.0 NW 29.8 0.0 4.9
08:48 8.0 6.8 92 983.9 20.6 NW 29.8 0.0 4.9
08:49 8.0 6.8 92 983.7 17.4 NW 29.8 0.8 5.0
08:50 7.9 6.7 92 984.0 39.6 WNW 39.6 0.8 5.0
08:51 7.9 6.7 92 983.8 22.8 NNW 39.6 1.5 5.0
08:52 7.8 6.6 92 984.0 26.6 W 39.6 1.5 5.0
08:53 7.7 6.5 92 984.0 19.7 W 39.6 2.3 5.1
08:54 7.6 6.5 93 983.7 20.6 WNW 39.6 1.5 5.1
08:55 7.5 6.4 93 983.9 22.8 WNW 39.6 1.5 5.1
08:56 7.4 6.3 93 983.9 22.1 N 39.6 0.8 5.1
08:57 7.4 6.3 93 983.8 15.2 SW 39.6 0.8 5.1
08:58 7.3 6.4 94 983.9 16.8 SW 39.6 0.0 5.1
08:59 7.2 6.3 94 983.9 22.8 SW 39.6 0.0 5.1
09:00 7.2 6.3 94 983.9 22.1 SW 39.6 0.0 5.1
09:01 7.2 6.3 94 983.7 22.1 SW 26.6 0.0 5.1
09:02 7.2 6.5 95 983.8 22.8 SW 22.8 0.0 5.1
09:03 7.2 6.5 95 983.7 30.4 SW 30.4 0.0 5.1
09:04 7.3 6.6 95 983.7 25.9 SW 30.4 0.0 5.1
09:05 7.3 6.6 95 983.7 32.7 SW 32.7 0.0 5.1
09:07 7.4 6.7 95 983.7 26.6 N 32.7 0.0 5.1
09:08 7.5 6.8 95 983.7 31.1 SW 32.7 0.0 5.1
09:10 7.6 6.7 94 983.5 25.1 SW 32.7 0.0 5.1
09:11 7.7 6.8 94 983.6 21.3 W 32.7 0.0 5.1
09:12 7.7 6.8 94 983.6 22.1 SW 32.7 0.0 5.1
09:13 7.7 6.8 94 983.7 21.3 SW 32.7 0.0 5.1
09:14 7.7 6.8 94 983.9 27.3 SW 32.7 0.0 5.1
09:16 7.7 6.8 94 984.0 32.7 NW 42.5 0.0 0.0
09:17 7.6 6.7 94 983.7 25.1 SW 42.5 4.5 5.5
09:18 7.5 6.6 94 983.7 27.3 SW 42.5 4.5 5.5
09:19 7.4 6.5 94 983.4 29.8 SW 42.5 4.5 5.5
09:20 7.3 6.4 94 983.4 27.3 SW 42.5 3.0 5.5
09:21 7.3 6.4 94 983.7 25.9 W 42.5 1.5 5.5
09:22 7.3 6.4 94 983.6 17.4 SW 42.5 0.0 5.5
09:23 7.2 6.3 94 983.5 19.7 SW 42.5 0.0 5.5
09:24 7.1 6.4 95 983.6 21.3 SW 42.5 0.0 5.5
09:25 7.1 6.4 95 983.5 25.1 SW 42.5 0.0 5.5
09:26 7.1 6.4 95 983.7 22.8 SW 32.7 0.0 5.5
09:27 7.1 6.4 95 983.5 27.3 SW 30.4 0.0 5.5
09:28 7.1 6.4 95 983.2 21.3 SW 30.4 0.0 5.5
09:29 7.1 6.4 95 983.6 22.1 SW 29.8 0.0 5.5
09:30 7.1 6.4 95 983.5 22.1 W 28.2 0.0 5.5
09:31 7.1 6.5 96 983.5 22.8 SW 28.2 0.0 5.5
09:32 7.1 6.5 96 983.4 19.0 W 28.2 0.0 5.5
09:34 7.2 6.6 96 983.4 24.4 SW 28.2 0.0 5.5
09:35 7.2 6.6 96 983.4 22.1 SW 28.2 0.0 5.5
09:36 7.3 6.7 96 983.6 30.4 SW 30.4 0.8 5.5
09:37 7.3 6.7 96 983.4 30.4 SW 30.4 0.8 5.5
09:38 7.3 6.7 96 983.4 25.9 SW 30.4 0.8 5.5
09:39 7.3 6.7 96 983.4 23.5 SW 30.4 0.8 5.5
09:40 7.3 6.7 96 983.4 19.0 NW 30.4 0.8 5.5
09:41 7.4 6.8 96 983.3 21.3 SW 30.4 0.0 5.5
09:42 7.4 6.8 96 983.5 20.6 W 30.4 0.0 5.5
09:43 7.4 6.8 96 983.4 19.7 NW 30.4 0.0 5.5
09:44 7.5 7.1 97 983.4 15.2 S 30.4 0.0 5.5
09:45 7.5 7.1 97 983.4 19.0 SW 30.4 0.0 5.5
09:46 7.6 7.2 97 983.3 20.6 S 30.4 0.0 5.5
09:47 7.7 7.3 97 983.2 17.4 SW 25.9 0.0 5.5
09:48 7.7 7.3 97 983.2 17.4 SW 23.5 0.0 5.5
09:49 7.7 7.3 97 983.3 15.2 SW 21.3 0.0 5.5
09:50 7.7 7.3 97 983.2 22.1 N 22.1 0.0 5.5
09:51 7.8 7.4 97 983.2 22.1 W 24.4 0.0 5.5
09:52 7.8 7.4 97 983.2 15.9 SW 24.4 0.0 5.5
09:53 7.8 7.4 97 983.1 20.6 SW 24.4 0.0 5.5
09:54 7.8 7.4 97 983.2 15.2 W 24.4 0.0 5.5
09:55 7.9 7.3 96 983.2 19.0 SW 24.4 0.0 5.5
09:56 7.9 7.3 96 983.1 19.7 SW 24.4 0.0 5.5
09:57 7.9 7.3 96 983.2 21.3 SW 24.4 0.0 5.5
09:58 7.9 7.3 96 983.0 23.5 W 24.4 0.0 5.5
09:59 7.9 7.3 96 983.2 25.1 SW 25.1 0.0 5.5
10:00 7.9 7.3 96 983.2 25.1 SW 25.1 0.0 5.5
10:01 7.9 7.3 96 983.3 22.1 S 25.1 0.0 5.5
10:02 7.9 7.3 96 983.2 24.4 SW 25.1 0.0 5.5
10:03 7.8 7.2 96 983.3 25.1 SW 28.2 0.0 5.5
10:04 7.8 7.2 96 983.3 18.3 SW 28.2 0.0 5.5
10:05 7.8 7.2 96 983.2 28.2 S 28.2 0.0 5.5
10:07 7.7 7.1 96 983.2 24.4 SW 28.2 0.0 5.5
10:08 7.7 7.1 96 983.2 22.1 SW 28.2 0.0 5.5
10:09 7.7 7.1 96 983.3 15.2 W 28.2 0.0 5.5
10:11 7.7 7.1 96 983.2 20.6 WNW 28.2 0.0 5.5
10:12 7.7 7.3 97 983.2 22.8 SW 28.2 0.0 5.5
10:13 7.7 7.3 97 983.3 26.6 SW 28.2 0.0 5.5
10:14 7.7 7.3 97 983.2 19.0 SW 28.2 0.0 5.5
10:15 7.7 7.3 97 983.2 22.8 SW 26.6 0.0 5.5
10:16 7.7 7.3 97 983.2 20.6 NW 26.6 0.0 5.5
10:17 7.7 7.3 97 983.2 22.1 SW 26.6 0.0 5.5
10:18 7.7 7.3 97 983.1 15.9 SW 26.6 0.0 5.5
10:19 7.6 7.2 97 983.2 15.9 SW 26.6 0.0 5.5
10:20 7.6 7.2 97 983.3 13.0 SW 26.6 0.0 5.5
10:21 7.6 7.2 97 983.2 25.1 SW 26.6 0.0 5.5
10:22 7.6 7.2 97 983.2 24.4 SW 26.6 0.0 5.5
10:23 7.6 7.2 97 983.0 25.9 SW 25.9 0.0 5.5
10:24 7.6 7.2 97 983.0 19.0 SW 25.9 0.0 5.5
10:25 7.6 7.2 97 983.1 25.9 S 25.9 0.0 5.5
10:26 7.6 7.2 97 983.0 24.4 S 25.9 0.0 5.5
10:27 7.6 7.2 97 983.2 21.3 SW 25.9 0.0 5.5
10:28 7.6 7.2 97 983.2 18.3 SW 25.9 0.0 5.5
10:29 7.5 7.1 97 983.1 19.0 W 25.9 0.0 5.5
10:30 7.5 7.1 97 983.2 19.7 SW 25.9 0.0 5.5
10:31 7.5 7.1 97 983.0 16.8 NW 25.9 0.0 5.5
10:32 7.5 7.1 97 983.1 19.0 WNW 25.9 0.0 5.5
10:34 7.4 6.8 96 983.2 15.9 SW 25.9 0.0 5.5
10:35 7.4 6.8 96 983.1 15.2 SW 25.9 0.0 5.5
10:36 7.4 6.8 96 983.2 18.3 SW 24.4 0.0 5.5
10:37 7.4 6.8 96 983.0 17.4 SW 22.8 0.0 5.5
10:38 7.4 6.8 96 983.1 15.2 SW 19.7 0.0 5.5
10:39 7.4 6.8 96 982.9 16.8 W 19.7 0.0 5.5
10:40 7.4 6.8 96 983.0 12.1 SW 19.7 0.0 5.5
10:41 7.4 6.8 96 983.0 22.1 SW 22.1 0.0 5.5
10:42 7.4 6.8 96 982.8 21.3 SW 22.1 0.0 5.5
10:43 7.4 6.8 96 982.8 25.1 SW 25.1 0.0 5.5
10:44 7.5 6.9 96 983.2 16.8 SW 25.1 0.0 5.5
10:45 7.5 6.9 96 983.2 23.5 NW 25.1 0.0 5.5
10:46 7.6 7.0 96 982.9 28.9 NW 28.9 0.0 5.5
10:47 7.7 7.1 96 982.9 25.9 SW 28.9 0.0 5.5
10:48 7.7 7.1 96 982.9 19.7 W 28.9 0.0 5.5
10:49 7.8 7.2 96 982.8 19.0 NW 28.9 0.0 5.5
10:50 7.8 7.2 96 982.8 20.6 SW 28.9 0.0 5.5
10:51 7.9 7.3 96 983.1 19.7 SW 28.9 0.0 5.5
10:52 7.9 7.1 95 983.0 17.4 SW 28.9 0.0 5.5
10:53 8.0 7.2 95 982.9 18.3 NW 28.9 0.0 5.5
10:54 8.0 7.2 95 982.8 18.3 W 28.9 0.0 5.5
10:55 8.0 7.2 95 982.8 14.5 W 28.9 0.0 5.5
10:56 8.0 7.2 95 982.7 19.0 W 28.9 0.0 5.5
10:57 8.1 7.3 95 982.7 19.7 SW 20.6 0.0 5.5
10:58 8.1 7.3 95 982.8 14.5 NW 20.6 0.0 5.5
10:59 8.1 7.3 95 982.8 16.8 NW 21.3 0.0 5.5
11:00 8.1 7.3 95 982.8 16.8 NW 21.3 0.0 5.5
11:01 8.2 7.4 95 982.9 18.3 SW 21.3 0.0 5.5
11:02 8.2 7.3 94 982.8 19.0 SW 21.3 0.0 5.5
11:03 8.2 7.4 95 982.6 17.4 W 21.3 0.0 5.5
11:04 8.2 7.4 95 982.7 21.3 SW 21.3 0.0 5.5
11:05 8.3 7.5 95 982.8 21.3 SW 21.3 0.0 5.5
11:07 8.4 7.6 95 982.8 12.1 SW 21.3 0.0 5.5
11:08 8.4 7.6 95 982.7 15.9 SW 21.3 0.0 5.5
11:09 8.5 7.7 95 982.6 21.3 SW 21.3 0.0 5.5
11:11 8.6 7.8 95 982.6 22.1 SW 25.1 0.0 5.5
11:12 8.6 7.8 95 982.6 22.8 W 25.1 0.0 5.5
11:13 8.6 7.8 95 982.7 17.4 SW 25.1 0.0 5.5
11:14 8.6 7.8 95 982.6 19.0 W 25.1 0.0 5.5
11:15 8.6 7.7 94 982.4 24.4 W 25.1 0.0 5.5
11:16 8.6 7.7 94 982.5 24.4 SW 25.1 0.0 5.5
11:17 8.6 7.7 94 982.4 25.9 W 25.9 0.0 5.5
11:18 8.7 7.6 93 982.5 18.3 SW 25.9 0.0 5.5
11:19 8.7 7.6 93 982.3 21.3 SW 26.6 0.0 5.5
11:20 8.7 7.6 93 982.4 22.1 SW 26.6 0.0 5.5
11:21 8.7 7.6 93 982.5 24.4 N 26.6 0.0 5.5
11:22 8.8 7.7 93 982.7 22.8 SW 26.6 0.0 5.5
11:23 8.8 7.6 92 982.4 22.1 SW 26.6 0.0 5.5
11:24 8.7 7.5 92 982.5 26.6 SW 26.6 0.0 5.5
11:25 8.8 7.4 91 982.4 23.5 W 26.6 0.0 5.5
11:26 8.8 7.4 91 982.5 24.4 NW 26.6 0.0 5.5
11:27 8.8 7.4 91 982.4 22.8 SW 26.6 0.0 5.5
11:28 8.8 7.4 91 982.4 23.5 SW 26.6 0.0 5.5
11:29 8.8 7.3 90 982.3 17.4 W 26.6 0.0 5.5
11:30 8.8 7.3 90 982.2 22.1 W 26.6 0.0 5.5
11:31 8.9 7.4 90 982.2 21.3 SW 26.6 0.0 5.5
11:32 8.9 7.2 89 982.3 21.3 SW 26.6 0.0 5.5
11:34 8.9 7.2 89 982.2 18.3 SW 26.6 0.0 5.5
11:35 8.9 7.0 88 982.2 23.5 NW 25.1 0.0 5.5
11:36 9.0 7.1 88 982.2 19.7 W 25.1 0.0 5.5
11:37 9.0 7.3 89 982.2 25.1 SW 25.1 0.0 5.5
11:38 9.0 7.1 88 982.1 19.0 WNW 25.1 0.0 5.5
11:39 9.0 7.1 88 982.2 22.1 W 25.1 0.0 5.5
11:40 9.1 7.2 88 982.2 24.4 SW 25.1 0.0 5.5
11:41 9.1 7.2 88 982.2 26.6 NW 26.6 0.0 5.5
11:42 9.1 7.2 88 982.2 19.7 SW 26.6 0.0 5.5
11:43 9.1 7.2 88 982.2 17.4 W 26.6 0.0 5.5
11:44 9.1 7.2 88 982.2 25.1 SW 26.6 0.0 5.5
11:45 9.1 7.1 87 982.2 18.3 NW 26.6 0.0 5.5
11:46 9.1 7.1 87 982.1 19.7 NW 26.6 0.0 5.5
11:47 9.1 7.1 87 982.3 22.8 SW 26.6 0.0 5.5
11:48 9.0 7.0 87 982.3 19.0 SW 26.6 0.0 5.5
11:49 9.0 7.1 88 982.0 14.5 SW 26.6 0.0 5.5
11:50 9.1 7.2 88 982.0 15.2 W 26.6 0.0 5.5
11:51 9.1 7.2 88 982.2 18.3 W 26.6 0.0 5.5
11:52 9.1 7.2 88 982.1 18.3 SW 25.1 0.0 5.5
11:53 9.1 7.2 88 982.0 14.5 SW 25.1 0.0 5.5
11:54 9.2 7.3 88 982.2 20.6 W 24.4 0.0 5.5
11:55 9.2 7.3 88 982.0 16.8 SW 23.5 0.0 5.5
11:56 9.2 7.5 89 982.0 15.9 NW 23.5 0.0 5.5
11:57 9.2 7.5 89 982.0 17.4 SW 23.5 0.0 5.5
11:58 9.3 7.6 89 982.0 15.9 S 23.5 0.0 5.5
11:59 9.3 7.6 89 982.0 15.9 NW 23.5 0.0 5.5
12:00 9.3 7.6 89 982.1 15.9 NW 23.5 0.0 5.5
12:01 9.2 7.5 89 982.2 21.3 SW 23.5 0.0 5.5
12:02 9.2 7.5 89 981.9 22.8 SW 23.5 0.0 5.5
12:03 9.2 7.5 89 981.9 22.1 W 23.5 0.0 5.5
12:04 9.2 7.5 89 982.0 25.9 W 25.9 0.0 5.5
12:05 9.2 7.5 89 981.9 17.4 W 25.9 0.0 5.5
12:07 9.2 7.5 89 982.0 20.6 SW 25.9 0.0 5.5
12:08 9.1 7.4 89 981.9 22.8 SW 25.9 0.0 5.5
12:10 9.1 7.4 89 982.0 22.8 NW 25.9 0.0 5.5
12:11 9.0 7.1 88 981.8 25.1 SW 25.9 0.0 5.5
12:12 9.0 7.0 87 982.0 22.1 NW 25.9 0.0 5.5
12:13 9.1 7.2 88 981.8 18.3 SW 25.9 0.0 5.5
12:14 9.1 7.1 87 981.8 20.6 SW 25.9 0.0 5.5
12:16 9.1 7.1 87 981.9 19.0 SW 25.1 0.0 5.5
12:17 9.2 7.0 86 981.7 29.8 SW 29.8 0.0 5.5
12:18 9.2 7.0 86 981.8 19.7 SW 29.8 0.0 5.5
12:19 9.2 7.0 86 981.7 24.4 SW 29.8 0.0 5.5
12:20 9.2 7.0 86 981.8 25.1 SW 29.8 0.0 5.5
12:21 9.3 7.1 86 981.8 16.8 S 29.8 0.0 5.5
12:22 9.3 7.1 86 981.7 23.5 W 29.8 0.0 5.5
12:23 9.3 7.1 86 981.5 22.8 SW 29.8 0.0 5.5
12:24 9.3 7.1 86 981.6 19.7 SW 29.8 0.0 5.5
12:25 9.3 6.9 85 981.8 25.9 SW 29.8 0.0 5.5
12:26 9.3 6.9 85 981.4 26.6 WNW 29.8 0.0 5.5
12:27 9.3 6.7 84 981.6 25.9 SW 29.8 0.0 5.5
12:28 9.4 6.8 84 981.6 22.8 S 26.6 0.0 5.5
12:29 9.4 6.8 84 981.4 25.1 NW 26.6 0.0 5.5
12:30 9.4 6.8 84 981.4 23.5 W 26.6 0.0 5.5
12:31 9.4 6.8 84 981.7 16.8 W 26.6 0.0 5.5
12:32 9.4 6.8 84 981.7 19.7 SW 26.6 0.0 5.5
12:33 9.4 7.0 85 981.8 22.8 S 26.6 0.0 5.5
12:34 9.4 7.0 85 981.6 14.5 SW 26.6 0.0 5.5
12:35 9.4 7.0 85 981.6 16.8 S 26.6 0.0 5.5
12:36 9.4 7.0 85 981.5 16.8 SW 25.9 0.0 5.5
12:37 9.4 7.0 85 981.4 19.0 S 25.1 0.0 5.5
12:38 9.5 7.1 85 981.4 15.9 W 25.1 0.0 5.5
12:39 9.5 7.1 85 981.3 22.1 SW 25.1 0.0 5.5
12:40 9.5 7.1 85 981.5 22.8 SW 22.8 0.0 5.5
12:41 9.5 7.1 85 981.5 12.1 W 22.8 0.0 5.5
12:42 9.5 7.1 85 981.4 15.2 SW 22.8 0.0 5.5
12:43 9.5 7.1 85 981.4 22.8 SW 22.8 0.0 5.5
12:44 9.5 7.1 85 981.0 27.3 SW 27.3 0.0 5.5
12:45 9.5 7.1 85 981.3 22.8 SW 27.3 0.0 5.5
12:46 9.4 7.0 85 981.3 23.5 SW 27.3 0.0 5.5
12:47 9.4 7.0 85 981.5 24.4 SW 27.3 0.0 5.5
12:48 9.4 7.0 85 981.2 23.5 SW 27.3 0.0 5.5
12:49 9.4 7.0 85 981.3 26.6 SW 27.3 0.0 5.5
12:50 9.4 7.0 85 981.5 25.9 SW 27.3 0.0 5.5
12:52 9.3 6.7 84 981.3 32.0 SW 32.0 0.0 5.5
12:53 9.2 6.6 84 981.2 24.4 SW 32.0 0.0 5.5
12:54 9.1 6.5 84 981.3 22.1 SW 32.0 0.0 5.5
12:55 9.0 6.4 84 981.3 21.3 N 32.0 0.0 5.5
12:56 9.0 6.4 84 981.2 24.4 SW 32.0 0.0 5.5
12:57 8.9 6.5 85 981.2 22.1 SW 32.0 0.0 5.5
12:58 8.9 6.5 85 981.2 15.9 SW 32.0 0.0 5.5
12:59 8.9 6.5 85 981.2 13.0 N 32.0 0.0 5.5
13:00 8.9 6.7 86 981.2 19.7 SW 32.0 0.0 5.5
13:01 8.9 6.7 86 981.0 19.7 SW 32.0 0.0 5.5
13:02 8.9 6.7 86 981.0 19.0 SW 27.3 0.0 5.5
13:03 8.9 6.9 87 981.2 17.4 SW 24.4 0.0 5.5
13:04 9.0 7.0 87 981.1 24.4 N 24.4 0.0 5.5
13:05 9.0 7.0 87 981.0 25.1 SW 25.1 0.0 5.5
13:07 9.1 6.9 86 981.1 18.3 SW 25.1 0.0 5.5
13:08 9.1 6.9 86 980.8 23.5 NW 25.1 0.0 5.5
13:10 9.1 6.9 86 981.0 21.3 SW 25.1 0.0 5.5
13:12 9.1 6.9 86 981.0 21.3 SW 25.1 0.0 5.5
13:13 9.2 7.0 86 980.8 22.1 SW 25.1 0.0 5.5
13:14 9.2 7.0 86 980.8 19.7 W 25.1 0.0 5.5
13:15 9.2 7.0 86 980.7 18.3 W 25.1 0.0 5.5
13:16 9.2 7.0 86 980.8 20.6 SW 23.5 0.0 5.5
13:17 9.1 6.9 86 980.8 17.4 SW 23.5 0.0 5.5
13:18 9.1 6.9 86 980.9 15.9 W 23.5 0.0 5.5
13:19 9.1 7.1 87 980.8 17.4 NW 23.5 0.0 5.5
13:20 9.1 7.1 87 981.0 21.3 SW 22.8 0.0 5.5
13:21 9.0 7.0 87 980.9 12.1 W 22.8 0.0 5.5
13:22 8.9 6.9 87 980.9 18.3 W 22.8 0.0 5.5
13:23 8.9 6.9 87 980.7 15.9 W 22.1 0.0 5.6
13:24 8.8 6.9 88 980.9 16.8 W 21.3 0.8 5.6
13:25 8.7 6.8 88 980.7 14.5 W 21.3 0.8 5.6
13:26 8.6 6.7 88 980.7 17.4 SW 21.3 0.8 5.6
13:27 8.6 6.7 88 980.6 13.6 W 21.3 0.8 5.6
13:28 8.6 6.7 88 980.6 13.6 W 21.3 0.8 5.6
13:29 8.5 6.8 89 980.7 15.2 SW 21.3 0.0 5.6
13:30 8.4 6.7 89 980.7 13.6 W 18.3 0.0 5.6
13:31 8.3 6.6 89 980.7 10.7 SW 18.3 0.0 5.6
13:32 8.3 6.6 89 980.7 9.8 W 17.4 0.0 5.6
13:33 8.3 6.6 89 980.7 9.8 SW 17.4 0.0 5.6
13:34 8.3 6.8 90 980.9 7.6 SW 17.4 0.0 5.6
13:35 8.3 6.8 90 980.9 12.1 W 17.4 0.0 5.6
13:36 8.3 6.8 90 980.8 13.0 S 16.8 0.0 5.6
13:37 8.2 6.7 90 980.6 13.6 NW 16.8 0.0 5.6
13:38 8.3 6.8 90 980.9 11.4 W 16.8 0.0 5.6
13:39 8.3 6.9 91 980.8 13.0 SW 13.6 0.0 5.6
13:40 8.3 6.9 91 980.8 13.0 S 13.6 0.0 5.6
13:41 8.3 6.9 91 980.8 15.2 SW 15.2 0.0 5.6
13:42 8.3 6.9 91 980.7 15.9 SW 15.9 0.0 5.6
13:43 8.2 6.8 91 980.7 20.6 W 20.6 0.0 5.6
13:44 8.2 6.8 91 980.7 19.0 SW 20.6 0.0 5.6
13:45 8.2 6.8 91 980.9 19.0 W 20.6 0.0 5.6
13:46 8.2 6.8 91 980.7 21.3 SW 21.3 0.0 5.6
13:47 8.1 6.7 91 980.9 21.3 SW 21.3 0.0 5.7
13:48 8.1 6.7 91 980.9 17.4 SW 21.3 0.8 5.7
13:50 8.0 6.6 91 980.9 21.3 SW 21.3 0.8 5.7
13:51 8.0 6.6 91 980.9 22.1 NW 22.1 0.8 5.7
13:52 8.0 6.6 91 981.0 18.3 WNW 22.1 0.8 5.7
13:53 7.9 6.5 91 980.9 18.3 SW 22.1 0.0 5.7
13:54 7.9 6.5 91 980.9 17.4 SW 22.1 0.0 5.7
13:55 7.8 6.4 91 980.9 20.6 SW 22.1 0.0 5.7
13:56 7.8 6.4 91 980.9 15.9 S 22.1 0.0 5.7
13:57 7.8 6.4 91 980.9 16.8 SW 22.1 0.0 5.7
13:58 7.8 6.4 91 981.0 11.4 SW 22.1 0.0 5.7
13:59 7.7 6.3 91 980.8 16.8 W 22.1 0.0 5.7
14:00 7.8 6.4 91 981.0 20.6 SW 22.1 0.0 5.7
14:01 7.7 6.3 91 980.9 15.2 SW 20.6 0.0 5.7
14:02 7.7 6.3 91 980.9 14.5 W 20.6 0.0 5.7
14:03 7.7 6.3 91 980.9 19.7 SW 20.6 0.0 5.7
14:04 7.7 6.3 91 980.7 16.8 SW 20.6 0.0 5.7
14:05 7.7 6.3 91 980.9 13.6 NW 20.6 0.0 5.7
14:07 7.7 6.3 91 980.8 16.8 NNW 20.6 0.0 5.7
14:08 7.7 6.3 91 980.7 18.3 W 20.6 0.0 5.7
14:10 7.7 6.3 91 980.7 15.9 SW 20.6 0.0 5.7
14:12 7.7 6.3 91 980.7 14.5 SW 19.7 0.0 5.7
14:13 7.6 6.2 91 980.8 13.6 SW 19.7 0.0 5.7
14:14 7.6 6.2 91 980.6 14.5 SW 18.3 0.0 5.7
14:15 7.7 6.3 91 980.6 13.6 SW 18.3 0.0 5.7
14:16 7.7 6.3 91 980.6 15.9 W 18.3 0.0 5.7
14:17 7.8 6.4 91 980.6 12.1 W 18.3 0.0 5.7
14:18 7.8 6.4 91 980.6 11.4 NW 18.3 0.0 5.7
14:19 7.8 6.4 91 980.6 16.8 SW 16.8 0.0 5.7
14:20 7.9 6.5 91 980.5 16.8 SW 16.8 0.0 5.7
14:21 7.9 6.5 91 980.6 13.0 SW 19.7 0.0 5.7
14:22 7.9 6.5 91 980.6 10.7 SW 19.7 0.0 5.7
14:23 7.9 6.5 91 980.6 10.7 SW 19.7 0.0 5.7
14:24 7.9 6.5 91 980.6 11.4 W 19.7 0.0 5.7
14:25 7.9 6.5 91 980.7 16.8 SW 19.7 0.0 5.7
14:26 8.0 6.6 91 980.5 19.7 SW 19.7 0.0 5.7
14:27 8.0 6.6 91 980.5 11.4 SW 19.7 0.0 5.7
14:28 8.0 6.6 91 980.6 14.5 SW 19.7 0.0 5.7
14:29 8.0 6.6 91 980.4 14.5 SW 19.7 0.0 5.7
14:30 8.0 6.6 91 980.4 19.7 SW 19.7 0.0 5.7
14:31 8.0 6.6 91 980.6 20.6 SW 20.6 0.0 5.7
14:32 8.0 6.6 91 980.4 19.7 W 20.6 0.0 5.7
14:33 8.1 6.7 91 980.4 23.5 SW 23.5 0.0 5.7
14:34 8.1 6.6 90 980.6 26.6 NW 26.6 0.0 5.7
14:35 8.2 6.7 90 980.4 21.3 SW 28.2 0.0 5.7
14:36 8.2 6.7 90 980.4 19.7 SW 28.2 0.0 5.7
14:37 8.2 6.7 90 980.7 28.2 SW 28.2 0.0 5.7
14:38 8.3 6.8 90 980.4 24.4 SW 28.2 0.0 5.7
14:39 8.3 6.6 89 980.4 22.1 SW 28.2 0.0 5.7
14:40 8.3 6.6 89 980.3 20.6 SW 28.2 0.0 5.7
14:41 8.4 6.7 89 980.4 16.8 SW 28.2 0.0 5.7
14:42 8.3 6.6 89 980.2 20.6 SW 28.2 0.0 5.7
14:43 8.4 6.7 89 980.4 15.9 SW 28.2 0.0 5.7
14:44 8.3 6.6 89 980.4 19.7 SW 28.2 0.0 5.7
14:45 8.4 6.7 89 980.3 21.3 W 28.2 0.0 5.7
14:46 8.3 6.6 89 980.2 20.6 NW 28.2 0.0 5.7
14:47 8.4 6.7 89 980.3 16.8 SW 24.4 0.0 5.7
14:49 8.4 6.7 89 980.2 11.4 SW 22.1 0.0 5.7
14:50 8.4 6.7 89 980.2 16.8 SW 22.1 0.0 5.7
14:52 8.5 6.8 89 980.1 10.7 S 22.1 0.0 5.7
14:53 8.5 6.8 89 980.0 19.7 NW 22.1 0.0 5.7
14:54 8.5 6.8 89 980.0 19.0 S 21.3 0.0 5.7
14:55 8.6 6.9 89 979.9 19.7 SW 21.3 0.0 5.7
14:56 8.6 6.9 89 979.8 18.3 SW 20.6 0.0 5.7
14:57 8.6 6.9 89 979.9 20.6 SW 20.6 0.0 5.7
14:58 8.6 6.9 89 980.0 20.6 SW 20.6 0.0 5.7
14:59 8.6 6.9 89 979.9 17.4 SW 20.6 0.0 5.7
15:00 8.6 6.9 89 979.9 17.4 SW 20.6 0.0 5.7
15:01 8.6 6.7 88 980.1 17.4 SW 20.6 0.0 5.7
15:02 8.6 6.7 88 979.9 19.7 SW 20.6 0.0 5.7
15:03 8.6 6.7 88 979.9 19.7 W 20.6 0.0 5.7
15:04 8.6 6.7 88 980.0 14.5 SW 20.6 0.0 5.7
15:05 8.5 6.6 88 979.9 15.9 SW 20.6 0.0 5.7
15:06 8.5 6.6 88 979.9 16.8 SW 20.6 0.0 5.7
15:07 8.4 6.5 88 979.9 13.6 W 20.6 0.0 5.7
15:09 8.4 6.5 88 979.9 12.1 SW 19.7 0.0 5.7
15:11 8.4 6.5 88 979.8 15.9 SW 19.7 0.0 5.7
15:12 8.4 6.5 88 979.8 15.2 SW 19.7 0.0 5.7
15:13 8.3 6.4 88 979.7 11.4 SW 17.4 0.0 5.7
15:14 8.3 6.4 88 979.9 11.4 S 18.3 0.0 5.7
15:15 8.3 6.4 88 979.9 13.0 SW 18.3 0.0 5.7
15:16 8.2 6.3 88 979.9 16.8 SW 18.3 0.0 5.7
15:17 8.2 6.3 88 979.8 13.6 N 18.3 0.0 5.7
15:18 8.1 6.2 88 979.9 15.2 SW 18.3 0.0 5.7
15:19 8.1 6.2 88 980.0 12.1 SW 18.3 0.0 5.7
15:20 8.1 6.2 88 980.0 15.2 SW 18.3 0.0 5.7
15:21 8.1 6.2 88 980.2 15.9 SW 18.3 0.0 5.7
15:23 8.0 6.1 88 980.1 20.6 W 20.6 0.0 5.7
15:24 8.0 6.1 88 980.1 22.1 SW 22.1 0.0 5.7
15:25 8.0 6.1 88 980.2 19.7 S 27.3 0.0 5.7
15:26 7.9 6.0 88 980.1 17.4 SW 27.3 0.0 5.7
15:27 7.9 6.0 88 980.0 13.6 SW 27.3 0.0 5.7
15:28 7.9 6.0 88 979.9 15.2 SW 27.3 0.0 5.7
15:29 7.8 5.9 88 980.0 16.8 SW 27.3 0.0 5.7
15:30 7.8 5.9 88 980.0 12.1 SW 27.3 0.0 5.7
15:31 7.7 5.8 88 980.0 15.9 SW 27.3 0.0 5.7
15:32 7.7 5.8 88 980.0 15.9 SW 27.3 0.0 5.7
15:33 7.6 5.7 88 979.9 13.6 W 27.3 0.0 5.7
15:34 7.7 5.8 88 979.8 15.9 SW 27.3 0.0 5.7
15:35 7.5 5.6 88 979.7 14.5 W 20.6 0.0 5.7
15:36 7.5 5.6 88 979.7 13.0 SW 20.6 0.0 5.7
15:37 7.4 5.5 88 979.8 15.2 SW 20.6 0.0 5.7
15:38 7.4 5.5 88 979.7 14.5 SW 20.6 0.0 5.7
15:39 7.3 5.4 88 979.7 13.6 NW 17.4 0.0 5.7
15:40 7.3 5.4 88 979.7 15.2 W 17.4 0.0 5.7
15:41 7.2 5.3 88 979.6 13.0 SW 17.4 0.0 5.7
15:42 7.2 5.5 89 979.7 14.5 SW 17.4 0.0 5.7
15:43 7.1 5.4 89 979.7 9.8 S 17.4 0.0 5.7
15:44 7.1 5.4 89 979.7 13.0 N 17.4 0.0 5.7
15:45 7.1 5.4 89 979.7 9.8 SW 17.4 0.0 5.7
15:46 7.1 5.4 89 979.8 12.1 S 17.4 0.0 5.7
15:47 7.0 5.3 89 979.7 14.5 SW 15.2 0.0 5.7
15:48 7.0 5.3 89 979.7 15.2 SW 15.2 0.0 5.7
15:49 6.9 5.2 89 979.6 13.0 SW 15.2 0.0 5.7
15:50 6.9 5.4 90 979.7 11.4 SW 15.2 0.0 5.7
15:51 6.9 5.4 90 979.7 13.0 SW 15.2 0.0 5.7
15:52 6.9 5.4 90 979.6 11.4 W 15.2 0.0 5.7
15:53 6.9 5.4 90 979.6 9.8 NW 15.2 0.0 5.7
15:54 6.8 5.3 90 979.4 12.1 SW 15.2 0.0 5.7
15:55 6.8 5.3 90 979.4 14.5 SW 15.2 0.0 5.7
15:56 6.8 5.3 90 979.4 15.9 SW 15.9 0.0 5.7
15:57 6.8 5.3 90 979.6 15.2 SW 15.9 0.0 5.7
15:58 6.8 5.3 90 979.5 8.3 SW 15.9 0.0 5.7
15:59 6.8 5.4 91 979.6 18.3 SW 18.3 0.0 5.7
16:00 6.8 5.4 91 979.5 18.3 SW 18.3 0.0 5.7
16:01 6.9 5.5 91 979.3 15.9 SW 18.3 0.0 5.7
16:02 6.9 5.5 91 979.5 13.0 SW 18.3 0.0 5.7
16:03 6.9 5.5 91 979.4 13.0 SW 18.3 0.0 5.7
16:04 6.9 5.5 91 979.6 16.8 SW 18.3 0.0 5.7
16:05 6.9 5.5 91 979.5 16.8 SW 18.3 0.0 5.7
16:07 6.9 5.5 91 979.6 16.8 SW 18.3 0.0 5.7
16:09 6.9 5.5 91 979.6 15.2 S 18.3 0.0 5.7
16:10 6.9 5.5 91 979.4 13.0 SW 18.3 0.0 5.7
16:12 6.9 5.5 91 979.5 13.6 SW 16.8 0.0 5.7
16:13 6.8 5.4 91 979.3 13.0 W 16.8 0.0 5.7
16:14 6.8 5.4 91 979.5 13.0 SW 16.8 0.0 5.7
16:15 6.8 5.4 91 979.4 13.6 SW 16.8 0.0 5.7
16:16 6.8 5.4 91 979.5 13.0 SW 16.8 0.0 5.7
16:17 6.8 5.4 91 979.5 17.4 SW 17.4 0.0 5.7
16:18 6.8 5.4 91 979.4 15.2 SW 17.4 0.0 5.7
16:19 6.8 5.4 91 979.6 18.3 SW 18.3 0.0 5.7
16:20 6.8 5.4 91 979.5 15.2 SW 18.3 0.0 5.7
16:21 6.9 5.5 91 979.4 13.6 SW 18.3 0.0 5.7
16:22 6.9 5.5 91 979.4 10.7 SW 18.3 0.0 5.7
16:23 6.9 5.5 91 979.3 13.6 SW 18.3 0.0 5.7
16:24 6.9 5.5 91 979.4 12.1 SW 18.3 0.0 5.7
16:25 6.9 5.5 91 979.4 16.8 SW 18.3 0.0 5.7
16:26 6.9 5.5 91 979.2 14.5 SW 18.3 0.0 5.7
16:27 6.9 5.5 91 979.2 13.6 W 18.3 0.0 5.7
16:28 6.9 5.5 91 979.1 15.2 SW 18.3 0.0 5.7
16:29 6.9 5.5 91 979.2 17.4 SW 18.3 0.0 5.7
16:30 6.9 5.5 91 979.4 15.2 W 18.3 0.0 5.7
16:31 6.8 5.4 91 979.2 9.8 SW 18.3 0.0 5.7
16:32 6.8 5.4 91 979.0 13.0 SW 18.3 0.0 5.7
16:33 6.8 5.4 91 979.1 13.0 SW 18.3 0.0 5.7
16:34 6.8 5.4 91 979.0 15.9 SW 18.3 0.0 5.7
16:36 6.7 5.5 92 979.0 9.8 S 18.3 0.0 5.7
16:37 6.7 5.3 91 979.0 9.2 SW 17.4 0.0 5.7
16:38 6.7 5.3 91 979.0 9.8 SW 17.4 0.0 5.7
16:39 6.7 5.3 91 978.9 9.2 SW 17.4 0.0 5.7
16:40 6.6 5.4 92 978.9 12.1 SW 15.9 0.0 5.7
16:41 6.6 5.2 91 978.9 12.1 W 15.9 0.0 5.7
16:42 6.6 5.4 92 979.0 13.6 SW 15.9 0.0 5.7
16:43 6.6 5.4 92 979.0 11.4 W 15.9 0.0 5.7
16:44 6.6 5.4 92 978.9 11.4 NW 15.9 0.0 5.7
16:45 6.6 5.4 92 978.7 9.2 W 13.6 0.0 5.7
16:46 6.6 5.4 92 978.8 8.3 SW 13.6 0.0 5.7
16:47 6.5 5.3 92 978.8 9.2 W 13.6 0.0 5.7
16:48 6.6 5.4 92 978.8 9.8 SW 13.6 0.0 5.7
16:49 6.5 5.3 92 978.8 9.2 SW 13.6 0.0 5.7
16:50 6.5 5.3 92 978.8 8.3 SW 13.6 0.0 5.7
16:51 6.5 5.3 92 978.7 8.3 SW 13.6 0.0 5.7
16:52 6.5 5.3 92 978.8 7.6 SW 13.6 0.0 5.7
16:53 6.5 5.3 92 978.9 9.8 S 11.4 0.0 5.7
16:54 6.5 5.3 92 979.0 8.3 WNW 10.7 0.0 5.7
16:55 6.4 5.4 93 978.8 7.6 SW 10.7 0.0 5.7
16:56 6.4 5.4 93 978.7 8.3 SW 10.7 0.0 5.7
16:57 6.4 5.4 93 978.8 9.2 SW 10.7 0.0 5.7
16:58 6.4 5.4 93 978.6 8.3 SW 10.7 0.0 5.7
16:59 6.4 5.4 93 978.7 12.1 SW 12.1 0.0 5.7
17:00 6.4 5.4 93 978.8 12.1 SW 12.1 0.0 5.7
17:01 6.4 5.4 93 978.7 12.1 SW 12.1 0.0 5.7
17:02 6.4 5.4 93 978.8 12.1 SW 12.1 0.0 5.7
17:03 6.4 5.4 93 978.7 12.1 SW 12.1 0.0 5.7
17:05 6.3 5.3 93 978.5 9.2 SW 12.1 0.0 5.7
17:06 6.3 5.3 93 978.7 8.3 SW 12.1 0.0 5.7
17:07 6.3 5.4 94 978.7 10.7 SW 13.0 0.0 5.7
17:09 6.3 5.4 94 978.8 9.8 SW 13.0 0.0 5.7
17:11 6.3 5.4 94 978.5 9.2 SW 13.0 0.0 5.7
17:12 6.3 5.4 94 978.7 9.2 SW 13.0 0.0 5.7
17:13 6.3 5.4 94 978.5 10.7 S 13.0 0.0 5.7
17:14 6.3 5.4 94 978.5 6.9 SW 13.0 0.0 5.7
17:16 6.2 5.3 94 978.5 11.4 SW 13.0 0.0 5.7
17:17 6.3 5.4 94 978.4 9.2 SW 13.0 0.0 5.7
17:18 6.2 5.3 94 978.6 8.3 S 13.0 0.0 5.7
17:19 6.2 5.3 94 978.5 12.1 SW 12.1 0.0 5.7
17:20 6.2 5.3 94 978.5 7.6 SW 12.1 0.0 5.7
17:21 6.2 5.3 94 978.6 12.1 SW 12.1 0.0 5.7
17:22 6.2 5.3 94 978.5 10.7 SW 12.1 0.0 5.7
17:24 6.2 5.3 94 978.5 13.0 SW 13.0 0.0 5.7
17:25 6.3 5.6 95 978.5 9.8 SW 13.0 0.0 5.7
17:26 6.3 5.6 95 978.5 10.7 SW 13.0 0.0 5.7
17:27 6.3 5.6 95 978.4 10.7 SW 13.0 0.0 5.7
17:28 6.3 5.6 95 978.5 9.2 SW 13.0 0.0 5.7
17:29 6.3 5.6 95 978.5 10.7 W 13.0 0.0 5.7
17:30 6.3 5.6 95 978.6 9.8 W 13.0 0.0 5.7
17:32 6.3 5.6 95 978.4 6.0 SW 13.0 0.0 5.7
17:33 6.3 5.6 95 978.4 9.8 SW 13.0 0.0 5.7
17:34 6.3 5.6 95 978.4 12.1 SW 13.0 0.0 5.7
17:35 6.3 5.6 95 978.5 7.6 SW 12.1 0.0 5.7
17:36 6.3 5.6 95 978.5 9.2 SW 12.1 0.0 5.7
17:37 6.3 5.6 95 978.4 10.7 SW 12.1 0.0 5.7
17:38 6.3 5.6 95 978.4 10.7 SW 12.1 0.0 5.7
17:39 6.3 5.6 95 978.4 11.4 SW 12.1 0.0 5.7
17:40 6.3 5.6 95 978.3 9.8 SW 12.1 0.0 5.7
17:41 6.3 5.6 95 978.4 8.3 SW 12.1 0.0 5.7
17:42 6.3 5.6 95 978.4 9.2 SW 12.1 0.0 5.7
17:44 6.3 5.6 95 978.3 9.2 SW 11.4 0.0 5.7
17:45 6.3 5.6 95 978.5 9.2 SW 11.4 0.0 5.7
17:46 6.3 5.6 95 978.4 9.8 SW 11.4 0.0 5.7
17:47 6.3 5.6 95 978.4 9.2 SW 11.4 0.0 5.7
17:48 6.3 5.6 95 978.5 11.4 SW 11.4 0.0 5.7
17:49 6.3 5.6 95 978.4 12.1 NW 12.1 0.0 5.7
17:50 6.3 5.6 95 978.5 13.6 W 13.6 0.0 5.7
17:51 6.3 5.6 95 978.4 11.4 SW 13.6 0.0 5.7
17:52 6.3 5.6 95 978.4 9.2 SW 13.6 0.0 5.7
17:53 6.3 5.6 95 978.3 9.2 SW 13.6 0.0 5.7
17:54 6.3 5.6 95 978.4 8.3 SW 13.6 0.0 5.7
17:55 6.3 5.6 95 978.4 9.2 SW 13.6 0.0 5.7
17:57 6.3 5.6 95 978.4 6.0 SW 13.6 0.0 5.7
17:58 6.3 5.6 95 978.3 6.9 S 13.6 0.0 5.7
17:59 6.3 5.6 95 978.2 9.8 SW 13.6 0.0 5.7
18:00 6.3 5.6 95 978.2 12.1 SW 13.6 0.0 5.7
18:01 6.3 5.6 95 978.1 12.1 SW 12.1 0.0 5.7
18:02 6.3 5.6 95 978.0 12.1 SW 12.1 0.0 5.7
18:04 6.3 5.6 95 978.1 12.1 SW 12.1 0.0 5.7
18:05 6.2 5.3 94 978.1 7.6 S 12.1 0.0 5.7
18:06 6.2 5.3 94 978.0 7.6 SW 12.1 0.0 5.7
18:08 6.2 5.3 94 978.1 9.2 SW 12.1 0.0 5.7
18:09 6.2 5.3 94 978.1 6.0 SW 12.1 0.0 5.7
18:11 6.2 5.3 94 978.1 6.0 SW 12.1 0.0 5.7
18:12 6.2 5.3 94 978.2 9.8 SW 12.1 0.0 5.7
18:14 6.1 5.2 94 978.1 8.3 SW 9.8 0.0 5.7
18:16 6.1 5.2 94 978.0 6.0 SW 9.8 0.0 5.7
18:17 6.1 5.2 94 978.1 7.6 SW 9.8 0.0 5.7
18:19 6.1 5.2 94 977.9 6.0 SW 9.8 0.0 5.7
18:20 6.1 5.2 94 978.1 6.0 SW 9.8 0.0 5.7
18:21 6.0 5.1 94 978.0 6.9 S 9.8 0.0 5.7
18:22 6.0 5.1 94 978.1 6.9 S 9.8 0.0 5.7
18:24 6.0 5.1 94 978.0 6.9 SW 8.3 0.0 5.7
18:25 6.0 5.1 94 978.1 6.0 S 8.3 0.0 5.7
18:27 5.9 5.0 94 978.2 6.0 SW 8.3 0.0 5.7
18:28 5.9 5.0 94 978.2 5.4 SW 8.3 0.0 5.7
18:29 5.9 5.0 94 978.0 6.9 SW 8.3 0.0 5.7
18:30 5.8 4.9 94 978.0 7.6 SW 8.3 0.0 5.7
18:31 5.8 4.9 94 978.1 5.4 SW 8.3 0.0 5.7
18:33 5.8 4.9 94 978.1 5.4 SW 8.3 0.0 5.7
18:34 5.8 4.9 94 978.1 3.8 SW 7.6 0.0 5.7
18:35 5.8 4.9 94 978.1 3.8 SW 7.6 0.0 5.7
18:36 5.7 4.8 94 978.2 4.5 SW 7.6 0.0 5.7
18:37 5.7 4.8 94 978.0 5.4 SW 7.6 0.0 5.7
18:38 5.7 4.8 94 978.1 6.0 SW 7.6 0.0 5.7
18:39 5.7 4.8 94 978.1 6.0 S 7.6 0.0 5.7
18:41 5.7 5.0 95 978.0 4.5 SW 6.0 0.0 5.7
18:42 5.7 4.8 94 978.0 5.4 SW 6.0 0.0 5.7
18:43 5.7 5.0 95 977.8 4.5 SW 6.0 0.0 5.7
18:44 5.6 4.9 95 978.1 7.6 SW 7.6 0.0 5.7
18:45 5.6 4.9 95 978.0 6.0 SW 7.6 0.0 5.7
18:46 5.6 4.9 95 978.1 4.5 SW 7.6 0.0 5.7
18:47 5.6 4.9 95 977.9 6.0 S 7.6 0.0 5.7
18:48 5.6 4.9 95 977.7 6.0 SW 7.6 0.0 5.7
18:49 5.6 4.9 95 977.8 4.5 S 7.6 0.0 5.7
18:51 5.6 4.9 95 977.9 5.4 SW 7.6 0.0 5.7
18:52 5.6 4.9 95 977.8 3.1 SW 7.6 0.0 5.7
18:53 5.6 4.9 95 977.8 4.5 SW 7.6 0.0 5.7
18:54 5.6 4.9 95 977.8 3.8 S 6.0 0.0 5.7
18:55 5.6 4.9 95 977.8 3.1 S 6.0 0.0 5.7
18:56 5.6 5.0 96 977.7 3.8 S 6.0 0.0 5.7
18:58 5.6 4.9 95 977.7 3.8 SE 6.0 0.0 5.7
18:59 5.6 5.0 96 977.6 3.1 SW 5.4 0.0 5.7
19:00 5.5 4.9 96 977.7 4.5 S 5.4 0.0 5.7
19:01 5.5 4.9 96 977.7 4.5 S 5.4 0.0 5.7
19:02 5.5 4.9 96 977.8 4.5 S 4.5 0.0 5.7
19:03 5.5 4.9 96 977.7 4.5 S 4.5 0.0 5.7
19:04 5.5 4.9 96 977.6 4.5 S 4.5 0.0 5.7
19:05 5.5 4.9 96 977.5 2.2 S 4.5 0.0 5.7
19:07 5.5 4.9 96 977.5 2.2 S 4.5 0.0 5.7
19:08 5.5 4.9 96 977.7 3.1 SE 4.5 0.0 5.7
19:10 5.5 4.9 96 977.6 2.2 SE 4.5 0.0 5.7
19:11 5.5 4.9 96 977.5 2.2 SE 4.5 0.0 5.7
19:13 5.5 4.9 96 977.6 2.2 SE 4.5 0.0 5.7
19:14 5.5 4.9 96 977.7 2.2 SE 4.5 0.0 5.7
19:16 5.5 4.9 96 977.7 2.2 SE 3.1 0.0 5.7
19:17 5.5 4.9 96 977.6 3.1 SE 3.1 0.0 5.7
19:19 5.5 4.9 96 977.6 2.2 SE 3.1 0.0 5.7
19:20 5.5 4.9 96 977.6 2.2 SE 3.1 0.0 5.7
19:21 5.5 4.9 96 977.5 3.1 SE 3.1 0.0 5.7
19:22 5.5 5.1 97 977.4 3.1 SE 3.1 0.0 5.7
19:23 5.5 5.1 97 977.4 3.8 SE 3.8 0.0 5.7
19:24 5.5 5.1 97 977.3 3.1 SE 3.8 0.0 5.7
19:25 5.5 5.1 97 977.3 3.8 SE 3.8 0.0 5.7
19:26 5.5 5.1 97 977.5 3.8 SE 3.8 0.0 5.7
19:27 5.5 5.1 97 977.3 3.1 SE 3.8 0.0 5.7
19:29 5.5 5.1 97 977.2 2.2 SE 3.8 0.0 5.7
19:30 5.5 5.1 97 977.3 2.2 SE 3.8 0.0 5.7
19:31 5.5 5.1 97 977.3 2.2 SE 3.8 0.0 5.7
19:32 5.5 5.1 97 977.3 3.1 SE 3.8 0.0 5.7
19:33 5.5 5.1 97 977.3 2.2 SE 3.8 0.0 5.7
19:34 5.5 5.1 97 977.4 3.1 SE 3.8 0.0 5.7
19:35 5.5 5.1 97 977.2 3.1 SE 3.8 0.0 5.7
19:36 5.5 5.1 97 977.3 1.6 SE 3.8 0.0 5.7
19:37 5.5 5.1 97 977.1 1.6 SE 3.1 0.0 5.7
19:38 5.5 5.1 97 977.0 2.2 SE 3.1 0.0 5.7
19:40 5.5 5.1 97 977.1 1.6 SE 3.1 0.0 5.7
19:41 5.5 5.1 97 977.1 2.2 SE 3.1 0.0 5.7
19:42 5.5 5.1 97 977.2 2.2 SE 3.1 0.0 5.7
19:43 5.5 5.1 97 977.2 2.2 SE 3.1 0.0 5.7
19:44 5.5 5.1 97 977.1 1.6 SE 3.1 0.0 5.7
19:45 5.4 5.0 97 977.1 2.2 SE 3.1 0.0 5.7
19:46 5.4 5.0 97 977.3 2.2 SE 3.1 0.0 5.7
19:47 5.4 5.0 97 977.2 2.2 SE 3.1 0.0 5.7
19:48 5.4 5.0 97 977.3 1.6 SE 3.1 0.0 5.7
19:49 5.4 5.0 97 977.3 1.6 SE 2.2 0.0 5.7
19:51 5.4 5.0 97 977.1 2.2 SE 2.2 0.0 5.7
19:52 5.3 4.9 97 977.2 1.6 SE 2.2 0.0 5.7
19:53 5.3 4.9 97 977.3 2.2 SE 2.2 0.0 5.7
19:54 5.3 4.9 97 977.1 2.2 SE 2.2 0.0 5.7
19:55 5.3 4.9 97 977.2 1.6 SE 2.2 0.0 5.7
19:56 5.3 4.9 97 977.2 2.2 SE 2.2 0.0 5.7
19:57 5.3 4.9 97 977.2 1.6 SE 2.2 0.0 5.7
19:58 5.2 4.8 97 977.2 2.2 SE 2.2 0.0 5.7
19:59 5.2 4.8 97 977.5 2.2 SE 2.2 0.0 5.7
20:01 5.2 4.8 97 977.3 2.2 SE 2.2 0.0 5.7
20:02 5.2 4.8 97 977.5 2.2 SE 2.2 0.0 5.7
20:03 5.2 4.8 97 977.4 2.2 SE 2.2 0.0 5.7
20:04 5.2 4.8 97 977.4 2.2 SE 2.2 0.0 5.7
20:05 5.2 4.8 97 977.4 2.2 SE 2.2 0.0 5.7
20:06 5.2 4.8 97 977.3 2.2 SE 2.2 0.0 5.7
20:08 5.2 4.8 97 977.3 2.2 SE 2.2 0.0 5.7
20:09 5.1 4.7 97 977.3 1.6 SE 2.2 0.0 5.7
20:11 5.1 4.7 97 977.2 1.6 SE 2.2 0.0 5.7
20:12 5.1 4.7 97 977.4 0.7 SE 2.2 0.0 5.7
20:14 5.1 4.7 97 977.2 0.7 SE 2.2 0.0 5.7
20:16 5.0 4.6 97 977.0 0.7 SE 2.2 0.0 5.7
20:17 5.0 4.6 97 977.0 1.6 SE 2.2 0.0 5.7
20:18 5.0 4.6 97 977.0 1.6 SE 2.2 0.0 5.7
20:19 5.0 4.6 97 977.0 1.6 SE 2.2 0.0 5.7
20:20 5.0 4.7 98 977.1 1.6 SE 1.6 0.0 5.7
20:21 5.0 4.7 98 977.1 0.7 SE 1.6 0.0 5.7
20:22 5.0 4.7 98 977.0 0.7 SE 1.6 0.0 5.7
20:23 5.0 4.7 98 977.3 1.6 SE 1.6 0.0 5.7
20:24 5.0 4.7 98 977.2 0.7 SE 1.6 0.0 5.7
20:26 5.0 4.7 98 977.1 0.7 SE 1.6 0.0 5.7
20:27 5.0 4.7 98 977.1 0.7 SE 1.6 0.0 5.7
20:28 5.0 4.7 98 977.1 0.7 SE 1.6 0.0 5.7
20:29 5.0 4.7 98 977.1 1.6 SE 1.6 0.0 5.7
20:30 5.0 4.7 98 977.0 0.7 SE 1.6 0.0 5.7
20:31 5.0 4.7 98 977.0 0.7 SE 1.6 0.0 5.7
20:32 5.0 4.7 98 976.8 1.6 SE 1.6 0.0 5.7
20:34 5.0 4.7 98 976.9 1.6 SE 1.6 0.0 5.7
20:35 5.0 4.7 98 976.9 1.6 SE 1.6 0.0 5.7
20:36 5.0 4.7 98 976.9 0.7 SE 1.6 0.0 5.7
20:37 5.0 4.7 98 977.1 2.2 SE 2.2 0.0 5.7
20:38 5.0 4.9 99 977.2 2.2 SE 2.2 0.0 5.7
20:39 5.0 4.7 98 977.3 1.6 SE 2.2 0.0 5.7
20:41 4.9 4.6 98 977.3 1.6 SE 2.2 0.0 5.7
20:42 4.9 4.6 98 977.2 1.6 SE 2.2 0.0 5.7
20:43 4.9 4.6 98 977.1 2.2 SE 2.2 0.0 5.7
20:44 4.9 4.6 98 977.1 1.6 SE 2.2 0.0 5.7
20:45 4.9 4.6 98 976.9 0.0 SE 2.2 0.0 5.7
20:46 4.8 4.5 98 976.8 0.0 SE 2.2 0.0 5.7
20:47 4.8 4.5 98 977.0 0.7 SE 2.2 0.0 5.7
20:48 4.8 4.5 98 976.9 0.7 SE 2.2 0.0 5.7
20:50 4.8 4.5 98 976.9 0.7 SE 2.2 0.0 5.7
20:51 4.8 4.5 98 976.8 0.7 SE 2.2 0.0 5.7
20:52 4.8 4.5 98 976.9 1.6 SE 2.2 0.0 5.7
20:53 4.8 4.7 99 977.0 1.6 SE 2.2 0.0 5.7
20:54 4.8 4.7 99 977.0 0.7 SE 1.6 0.0 5.7
20:56 4.8 4.7 99 977.0 1.6 SE 1.6 0.0 5.7
20:57 4.8 4.7 99 977.0 1.6 SE 1.6 0.0 5.7
20:58 4.8 4.7 99 976.9 0.7 SE 1.6 0.0 5.7
20:59 4.8 4.7 99 977.0 0.7 SE 1.6 0.0 5.7
21:00 4.8 4.7 99 977.0 0.7 SE 1.6 0.0 5.7
21:02 4.8 4.7 99 977.1 0.7 SE 1.6 0.0 5.7
21:03 4.8 4.7 99 977.1 0.7 SE 1.6 0.0 5.7
21:04 4.8 4.7 99 977.0 0.7 SE 1.6 0.0 5.7
21:05 4.8 4.7 99 976.9 0.7 SE 1.6 0.0 5.7
21:06 4.8 4.7 99 976.8 0.7 SE 1.6 0.0 5.7
21:08 4.8 4.7 99 976.8 1.6 W 1.6 0.0 5.7
21:10 4.8 4.7 99 976.8 1.6 W 1.6 0.0 5.7
21:11 4.8 4.7 99 976.7 0.7 W 1.6 0.0 5.7
21:13 4.8 4.7 99 976.7 1.6 W 1.6 0.0 5.7
21:14 4.8 4.7 99 976.7 1.6 NW 1.6 0.0 5.7
21:16 4.9 4.8 99 976.6 0.7 NW 1.6 0.0 5.7
21:18 4.9 4.8 99 976.6 1.6 NW 1.6 0.0 5.7
21:19 4.9 4.8 99 976.5 0.7 NW 1.6 0.0 5.7
21:20 5.0 4.9 99 976.5 0.7 NW 1.6 0.0 5.7
21:21 5.0 4.9 99 976.5 0.7 NW 1.6 0.0 5.7
21:22 5.0 4.9 99 976.3 0.7 NW 1.6 0.0 5.7
21:24 5.0 4.9 99 976.1 1.6 NW 1.6 0.0 5.7
21:25 5.0 4.9 99 976.0 1.6 NW 1.6 0.0 5.7
21:26 5.0 4.9 99 976.0 0.0 NW 1.6 0.0 5.7
21:27 5.0 4.9 99 976.0 1.6 NW 1.6 0.0 5.7
21:28 5.0 4.9 99 976.0 1.6 NW 1.6 0.0 5.7
21:29 5.0 4.9 99 975.9 1.6 NW 1.6 0.0 5.7
21:30 5.0 4.9 99 976.0 1.6 NW 1.6 0.0 5.7
21:31 5.0 4.9 99 976.0 1.6 NW 1.6 0.0 5.7
21:32 5.1 5.0 99 976.0 0.0 NW 1.6 0.0 5.7
21:34 5.0 4.9 99 976.0 0.0 NW 1.6 0.0 5.7
21:35 5.1 5.0 99 976.2 0.7 NW 1.6 0.0 5.7
21:36 5.0 4.9 99 976.2 1.6 NW 1.6 0.0 5.7
21:37 5.0 4.9 99 976.2 0.0 NW 1.6 0.0 5.7
21:38 5.0 4.9 99 976.2 0.0 NW 1.6 0.0 5.7
21:39 5.0 4.9 99 976.3 0.0 NW 1.6 0.0 5.7
21:40 5.0 4.9 99 976.2 0.0 NW 1.6 0.0 5.7
21:41 5.0 4.9 99 976.1 0.0 NW 1.6 0.0 5.7
21:43 5.0 4.9 99 976.3 0.0 NW 1.6 0.0 5.7
21:44 5.0 4.9 99 976.4 0.0 NW 1.6 0.0 5.7
21:45 4.9 4.8 99 976.3 1.6 NW 1.6 0.0 5.7
21:46 4.9 4.8 99 976.4 1.6 NW 1.6 0.0 5.7
21:47 4.9 4.8 99 976.4 0.7 NW 1.6 0.0 5.7
21:48 4.9 4.8 99 976.4 0.7 NW 1.6 0.0 5.7
21:49 4.9 4.8 99 976.5 1.6 NW 1.6 0.0 5.7
21:50 4.9 4.8 99 976.6 0.7 NW 1.6 0.0 5.7
21:51 4.9 4.8 99 976.5 1.6 NW 1.6 0.0 5.7
21:52 4.9 4.8 99 976.6 0.7 NW 1.6 0.0 5.7
21:54 4.9 4.8 99 976.5 2.2 NW 2.2 0.0 5.7
21:55 4.9 4.8 99 976.4 1.6 NW 2.2 0.0 5.7
21:56 4.9 4.8 99 976.4 2.2 NW 2.2 0.0 5.7
21:57 4.9 4.8 99 976.5 1.6 NW 2.2 0.0 5.7
21:58 4.9 4.8 99 976.3 1.6 NW 2.2 0.0 5.7
21:59 4.9 4.8 99 976.5 0.7 NW 2.2 0.0 5.7
22:00 4.9 4.8 99 976.5 1.6 NW 2.2 0.0 5.7
22:01 4.9 4.8 99 976.6 1.6 NW 2.2 0.0 5.7
22:03 4.9 4.8 99 976.3 1.6 NW 2.2 0.0 5.7
22:04 4.9 4.8 99 976.4 1.6 NW 2.2 0.0 5.7
22:05 4.9 4.8 99 976.3 1.6 NW 2.2 0.0 5.7
22:06 4.9 4.8 99 976.6 1.6 NW 1.6 0.0 5.7
22:08 4.9 4.8 99 976.7 1.6 NW 1.6 0.0 5.7
22:09 4.9 4.8 99 976.6 0.0 NW 1.6 0.0 5.7
22:11 4.9 4.8 99 976.7 0.7 NW 1.6 0.0 5.7
22:13 4.9 4.8 99 976.7 0.7 NW 1.6 0.0 5.7
22:15 4.8 4.7 99 976.4 1.6 NW 1.6 0.0 5.7
22:17 4.8 4.7 99 976.6 1.6 NW 1.6 0.0 5.7
22:20 4.8 4.7 99 976.3 2.2 NW 2.2 0.0 5.7
22:22 4.8 4.7 99 976.4 1.6 NW 2.2 0.0 5.7
22:24 4.8 4.7 99 976.2 2.2 NW 2.2 0.0 5.7
22:26 4.7 4.6 99 976.2 1.6 NW 2.2 0.0 5.7
22:28 4.7 4.6 99 976.3 0.7 NW 2.2 0.0 5.7
22:30 4.7 4.6 99 976.2 0.0 NW 2.2 0.0 5.7
22:32 4.7 4.6 99 976.2 0.0 NW 2.2 0.0 5.7
22:33 4.7 4.6 99 976.2 0.0 NW 2.2 0.0 5.7
22:34 4.7 4.6 99 976.4 0.0 NW 2.2 0.0 5.7
22:35 4.7 4.6 99 976.3 0.0 NW 1.6 0.0 5.7
22:36 4.6 4.5 99 976.4 0.0 NW 1.6 0.0 5.7
22:38 4.6 4.5 99 976.4 0.0 NW 0.7 0.0 5.7
22:40 4.5 4.4 99 976.3 0.7 NW 0.7 0.0 5.7
22:41 4.5 4.4 99 976.3 1.6 NW 1.6 0.0 5.7
22:42 4.5 4.4 99 976.2 2.2 NW 2.2 0.0 5.7
22:43 4.5 4.4 99 976.3 2.2 NW 2.2 0.0 5.7
22:44 4.5 4.4 99 976.2 2.2 NW 2.2 0.0 5.7
22:46 4.5 4.4 99 976.1 2.2 NW 2.2 0.0 5.7
22:47 4.5 4.4 99 976.1 2.2 NW 2.2 0.0 5.7
22:48 4.5 4.4 99 976.2 1.6 NW 2.2 0.0 5.7
22:49 4.5 4.4 99 976.2 0.0 NW 2.2 0.0 5.7
22:50 4.5 4.4 99 976.1 1.6 NW 2.2 0.0 5.7
22:51 4.5 4.4 99 976.1 2.2 NW 2.2 0.0 5.7
22:52 4.4 4.3 99 976.2 3.1 NW 3.1 0.0 5.7
22:54 4.4 4.3 99 976.0 2.2 NW 3.1 0.0 5.7
22:55 4.3 4.2 99 976.2 2.2 NW 3.1 0.0 5.7
22:56 4.3 4.2 99 976.2 2.2 NW 3.1 0.0 5.7
22:57 4.3 4.2 99 976.2 0.7 NW 3.1 0.0 5.7
22:58 4.3 4.2 99 976.2 0.7 NW 3.1 0.0 5.7
22:59 4.3 4.2 99 976.3 0.0 NW 3.1 0.0 5.7
23:01 4.3 4.2 99 976.2 0.7 NW 3.1 0.0 5.7
23:02 4.3 4.2 99 976.2 0.7 NW 3.1 0.0 5.7
23:03 4.3 4.2 99 976.2 0.7 NW 3.1 0.0 5.7
23:04 4.3 4.2 99 976.2 0.7 NW 3.1 0.0 5.7
23:05 4.3 4.2 99 976.1 0.7 NW 2.2 0.0 5.7
23:06 4.3 4.2 99 976.1 0.7 NW 1.6 0.0 5.7
23:08 4.2 4.1 99 976.3 0.7 NW 0.7 0.0 5.7
23:10 4.2 4.1 99 976.2 0.7 NW 0.7 0.0 5.7
23:11 4.1 4.0 99 976.2 0.7 NW 0.7 0.0 5.7
23:13 4.1 4.0 99 976.0 0.7 NW 0.7 0.0 5.7
23:15 4.1 4.0 99 975.8 1.6 NW 1.6 0.0 5.7
23:17 4.1 4.0 99 975.9 2.2 NW 3.1 0.0 5.7
23:18 4.1 4.0 99 975.8 2.2 NW 3.1 0.0 5.7
23:20 4.1 4.0 99 975.8 1.6 NW 3.1 0.0 5.7
23:21 4.2 4.1 99 975.8 2.2 NW 3.1 0.0 5.7
23:23 4.1 4.0 99 975.9 0.7 NW 3.1 0.0 5.7
23:24 4.2 4.1 99 976.0 2.2 NW 3.1 0.0 5.7
23:25 4.1 4.0 99 976.1 2.2 NW 3.1 0.0 5.7
23:26 4.2 4.1 99 976.0 1.6 NW 3.1 0.0 5.7
23:27 4.1 4.0 99 976.0 1.6 NW 3.1 0.0 5.7
23:28 4.2 4.1 99 976.0 2.2 NW 3.1 0.0 5.7
23:29 4.1 4.0 99 976.0 2.2 NW 3.1 0.0 5.7
23:31 4.1 4.0 99 976.0 2.2 NW 2.2 0.0 5.7
23:32 4.2 4.1 99 976.0 2.2 NW 2.2 0.0 5.7
23:33 4.1 4.0 99 975.9 2.2 NW 2.2 0.0 5.7
23:34 4.1 4.0 99 976.0 2.2 NW 2.2 0.0 5.7
23:35 4.1 4.0 99 975.9 2.2 NW 2.2 0.0 5.7
23:36 4.1 4.0 99 975.9 2.2 NW 2.2 0.0 5.7
23:37 4.1 4.0 99 975.9 2.2 NW 2.2 0.0 5.7
23:38 4.1 4.0 99 975.9 2.2 NW 2.2 0.0 5.7
23:39 4.1 4.0 99 975.9 2.2 NW 2.2 0.0 5.7
23:40 4.1 4.0 99 975.9 3.1 NW 3.1 0.0 5.7
23:42 4.1 4.0 99 976.1 2.2 NW 3.1 0.0 5.7
23:43 4.1 4.0 99 975.9 2.2 NW 3.1 0.0 5.7
23:44 4.2 4.1 99 975.9 2.2 NW 3.1 0.0 5.7
23:45 4.2 4.1 99 975.9 2.2 NW 3.1 0.0 5.7
23:46 4.2 4.1 99 975.9 2.2 N 3.1 0.0 5.7
23:47 4.2 4.1 99 975.9 3.1 N 3.1 0.0 5.7
23:48 4.2 4.1 99 976.0 2.2 NE 3.1 0.0 5.7
23:49 4.2 4.1 99 975.9 1.6 NE 3.1 0.0 5.7
23:51 4.2 4.1 99 976.1 3.8 NE 3.8 0.0 5.7
23:52 4.3 4.2 99 975.9 3.8 NE 3.8 0.0 5.7
23:53 4.3 4.2 99 975.9 3.1 NE 3.8 0.0 5.7
23:54 4.3 4.2 99 975.9 3.8 NE 3.8 0.0 5.7
23:55 4.3 4.2 99 976.0 2.2 NE 3.8 0.0 5.7
23:56 4.3 4.2 99 976.0 2.2 NE 3.8 0.0 5.7
23:57 4.3 4.2 99 976.1 4.5 NE 4.5 0.0 5.7
23:59 4.3 4.2 99 976.2 3.8 NE 4.5 0.0 5.7

UK - WEATHER STATION TOPSITES - UK World Weather Websites

This is a private weather station, never base important decisions or events on data from this weather station. Although every effort has been made to make the data as accurate as possible it does not meet MetOffice standards. It is proved as a guide of local weather conditions. We accept no liability for any loss which may arise from use of the data.

Copyright © Carnkie Weather 2009 - 2018.